Time,TemperatureF,DewpointF,PressureIn,WindDirection,WindDirectionDegrees,WindSpeedMPH,WindSpeedGustMPH,Humidity,HourlyPrecipIn,Conditions,Clouds,dailyrainin,SoftwareType,DateUTC
2013-04-08 00:00:00,41.8,36.7,29.85,ESE,108,5.0,5.0,82,0.00,,,0.00,Wunderground v.1.15,2013-04-08 05:00:00,
2013-04-08 00:01:00,41.8,36.7,29.85,ESE,108,5.0,5.0,82,0.00,,,0.00,Wunderground v.1.15,2013-04-08 05:01:00,
2013-04-08 00:02:00,41.8,36.7,29.85,East,86,5.0,5.0,82,0.00,,,0.00,Wunderground v.1.15,2013-04-08 05:02:00,
2013-04-08 00:04:00,41.7,36.6,29.85,East,100,5.0,5.0,82,0.00,,,0.00,Wunderground v.1.15,2013-04-08 05:04:00,
2013-04-08 00:07:00,41.7,36.6,29.85,East,89,5.0,6.0,82,0.00,,,0.00,Wunderground v.1.15,2013-04-08 05:07:00,
2013-04-08 00:08:00,41.7,36.6,29.85,ESE,105,5.0,6.0,82,0.00,,,0.00,Wunderground v.1.15,2013-04-08 05:08:00,
2013-04-08 00:11:00,41.7,36.6,29.84,East,91,5.0,5.0,82,0.00,,,0.00,Wunderground v.1.15,2013-04-08 05:11:00,
2013-04-08 00:14:00,41.6,36.5,29.85,ESE,105,5.0,5.0,82,0.00,,,0.00,Wunderground v.1.15,2013-04-08 05:14:00,
2013-04-08 00:19:00,41.6,36.5,29.85,East,88,5.0,9.0,82,0.00,,,0.00,Wunderground v.1.15,2013-04-08 05:19:00,
2013-04-08 00:20:00,41.6,36.5,29.85,ESE,102,4.0,4.0,82,0.00,,,0.00,Wunderground v.1.15,2013-04-08 05:20:00,
2013-04-08 00:23:00,41.6,36.2,29.84,East,101,5.0,9.0,81,0.00,,,0.00,Wunderground v.1.15,2013-04-08 05:23:00,
2013-04-08 00:26:00,41.6,36.2,29.85,ESE,105,5.0,9.0,81,0.00,,,0.00,Wunderground v.1.15,2013-04-08 05:26:00,
2013-04-08 00:27:00,41.6,36.2,29.84,East,94,5.0,9.0,81,0.00,,,0.00,Wunderground v.1.15,2013-04-08 05:27:00,
2013-04-08 00:32:00,41.5,36.1,29.85,ESE,111,6.0,7.0,81,0.00,,,0.00,Wunderground v.1.15,2013-04-08 05:32:00,
2013-04-08 00:33:00,41.5,36.1,29.85,ESE,109,6.0,7.0,81,0.00,,,0.00,Wunderground v.1.15,2013-04-08 05:33:00,
2013-04-08 00:34:00,41.5,36.1,29.85,East,92,6.0,7.0,81,0.00,,,0.00,Wunderground v.1.15,2013-04-08 05:34:00,
2013-04-08 00:35:00,41.5,36.1,29.85,East,100,6.0,10.0,81,0.00,,,0.00,Wunderground v.1.15,2013-04-08 05:35:00,
2013-04-08 00:38:00,41.5,36.1,29.85,ESE,103,6.0,10.0,81,0.00,,,0.00,Wunderground v.1.15,2013-04-08 05:38:00,
2013-04-08 00:39:00,41.6,36.2,29.85,ESE,105,6.0,10.0,81,0.00,,,0.00,Wunderground v.1.15,2013-04-08 05:39:00,
2013-04-08 00:41:00,41.6,36.2,29.85,ESE,109,6.0,7.0,81,0.00,,,0.00,Wunderground v.1.15,2013-04-08 05:41:00,
2013-04-08 00:43:00,41.6,36.2,29.85,ESE,106,6.0,7.0,81,0.00,,,0.00,Wunderground v.1.15,2013-04-08 05:43:00,
2013-04-08 00:44:00,41.6,36.2,29.85,East,98,6.0,7.0,81,0.00,,,0.00,Wunderground v.1.15,2013-04-08 05:44:00,
2013-04-08 00:45:00,41.6,36.2,29.85,ESE,105,6.0,7.0,81,0.00,,,0.00,Wunderground v.1.15,2013-04-08 05:45:00,
2013-04-08 00:46:00,41.6,36.2,29.85,East,86,6.0,10.0,81,0.00,,,0.00,Wunderground v.1.15,2013-04-08 05:46:00,
2013-04-08 00:48:00,41.6,36.2,29.84,East,85,5.0,10.0,81,0.00,,,0.00,Wunderground v.1.15,2013-04-08 05:48:00,
2013-04-08 00:51:00,41.6,36.2,29.85,ESE,110,5.0,7.0,81,0.00,,,0.00,Wunderground v.1.15,2013-04-08 05:51:00,
2013-04-08 00:52:00,41.6,36.2,29.85,East,90,6.0,7.0,81,0.00,,,0.00,Wunderground v.1.15,2013-04-08 05:52:00,
2013-04-08 00:54:00,41.7,36.3,29.84,SE,129,6.0,10.0,81,0.00,,,0.00,Wunderground v.1.15,2013-04-08 05:54:00,
2013-04-08 00:57:00,41.7,36.3,29.85,East,88,5.0,10.0,81,0.00,,,0.00,Wunderground v.1.15,2013-04-08 05:57:00,
2013-04-08 00:59:00,41.7,36.3,29.84,ESE,103,5.0,10.0,81,0.00,,,0.00,Wunderground v.1.15,2013-04-08 05:59:00,
2013-04-08 01:02:00,41.7,36.3,29.85,ESE,111,4.0,6.0,81,0.00,,,0.00,Wunderground v.1.15,2013-04-08 06:02:00,
2013-04-08 01:03:00,41.7,36.3,29.84,ESE,109,4.0,6.0,81,0.00,,,0.00,Wunderground v.1.15,2013-04-08 06:03:00,
2013-04-08 01:07:00,41.7,36.3,29.84,ESE,105,4.0,6.0,81,0.00,,,0.00,Wunderground v.1.15,2013-04-08 06:07:00,
2013-04-08 01:10:00,41.8,36.4,29.84,East,101,5.0,5.0,81,0.00,,,0.00,Wunderground v.1.15,2013-04-08 06:10:00,
2013-04-08 01:12:00,41.8,36.4,29.84,East,94,5.0,7.0,81,0.00,,,0.00,Wunderground v.1.15,2013-04-08 06:12:00,
2013-04-08 01:13:00,41.8,36.4,29.83,East,92,6.0,7.0,81,0.00,,,0.00,Wunderground v.1.15,2013-04-08 06:13:00,
2013-04-08 01:16:00,41.8,36.4,29.83,East,87,5.0,7.0,81,0.00,,,0.00,Wunderground v.1.15,2013-04-08 06:16:00,
2013-04-08 01:18:00,41.8,36.4,29.83,East,91,5.0,10.0,81,0.00,,,0.00,Wunderground v.1.15,2013-04-08 06:18:00,
2013-04-08 01:20:00,41.9,36.5,29.83,East,80,5.0,5.0,81,0.00,,,0.00,Wunderground v.1.15,2013-04-08 06:20:00,
2013-04-08 01:22:00,41.9,36.5,29.83,ESE,103,4.0,5.0,81,0.00,,,0.00,Wunderground v.1.15,2013-04-08 06:22:00,
2013-04-08 01:24:00,41.9,36.5,29.83,East,86,4.0,7.0,81,0.00,,,0.00,Wunderground v.1.15,2013-04-08 06:24:00,
2013-04-08 01:25:00,41.9,36.5,29.83,East,93,4.0,7.0,81,0.00,,,0.00,Wunderground v.1.15,2013-04-08 06:25:00,
2013-04-08 01:28:00,42.0,36.6,29.82,ESE,115,5.0,9.0,81,0.00,,,0.00,Wunderground v.1.15,2013-04-08 06:28:00,
2013-04-08 01:32:00,42.0,36.6,29.82,ENE,75,5.0,6.0,81,0.00,,,0.00,Wunderground v.1.15,2013-04-08 06:32:00,
2013-04-08 01:35:00,42.1,36.7,29.83,East,86,5.0,10.0,81,0.00,,,0.00,Wunderground v.1.15,2013-04-08 06:35:00,
2013-04-08 01:36:00,42.2,36.8,29.83,ESE,120,5.0,10.0,81,0.00,,,0.00,Wunderground v.1.15,2013-04-08 06:36:00,
2013-04-08 01:40:00,42.2,36.8,29.82,East,83,5.0,5.0,81,0.00,,,0.00,Wunderground v.1.15,2013-04-08 06:40:00,
2013-04-08 01:42:00,42.2,36.8,29.81,East,95,4.0,5.0,81,0.00,,,0.00,Wunderground v.1.15,2013-04-08 06:42:00,
2013-04-08 01:44:00,42.2,36.8,29.81,East,92,4.0,7.0,81,0.00,,,0.00,Wunderground v.1.15,2013-04-08 06:44:00,
2013-04-08 01:48:00,42.3,36.9,29.81,ESE,111,4.0,10.0,81,0.00,,,0.00,Wunderground v.1.15,2013-04-08 06:48:00,
2013-04-08 01:49:00,42.3,36.9,29.81,East,85,5.0,10.0,81,0.00,,,0.00,Wunderground v.1.15,2013-04-08 06:49:00,
2013-04-08 01:53:00,42.4,37.0,29.81,ESE,111,5.0,6.0,81,0.00,,,0.00,Wunderground v.1.15,2013-04-08 06:53:00,
2013-04-08 01:54:00,42.4,37.0,29.81,ENE,77,5.0,6.0,81,0.00,,,0.00,Wunderground v.1.15,2013-04-08 06:54:00,
2013-04-08 01:59:00,42.4,37.0,29.80,East,91,5.0,9.0,81,0.00,,,0.00,Wunderground v.1.15,2013-04-08 06:59:00,
2013-04-08 02:00:00,42.5,37.1,29.80,East,97,5.0,5.0,81,0.00,,,0.00,Wunderground v.1.15,2013-04-08 07:00:00,
2013-04-08 02:04:00,42.5,37.1,29.80,East,86,5.0,7.0,81,0.00,,,0.00,Wunderground v.1.15,2013-04-08 07:04:00,
2013-04-08 02:05:00,42.6,37.2,29.80,ESE,109,5.0,7.0,81,0.00,,,0.00,Wunderground v.1.15,2013-04-08 07:05:00,
2013-04-08 02:06:00,42.6,37.2,29.80,East,90,5.0,7.0,81,0.00,,,0.00,Wunderground v.1.15,2013-04-08 07:06:00,
2013-04-08 02:08:00,42.7,37.3,29.80,ESE,117,5.0,7.0,81,0.00,,,0.00,Wunderground v.1.15,2013-04-08 07:08:00,
2013-04-08 02:10:00,42.7,37.3,29.79,East,91,6.0,6.0,81,0.00,,,0.00,Wunderground v.1.15,2013-04-08 07:10:00,
2013-04-08 02:13:00,42.8,37.4,29.79,East,94,5.0,9.0,81,0.00,,,0.00,Wunderground v.1.15,2013-04-08 07:13:00,
2013-04-08 02:15:00,42.8,37.1,29.79,East,86,5.0,9.0,80,0.00,,,0.00,Wunderground v.1.15,2013-04-08 07:15:00,
2013-04-08 02:18:00,42.8,37.4,29.79,ESE,112,5.0,9.0,81,0.00,,,0.00,Wunderground v.1.15,2013-04-08 07:18:00,
2013-04-08 02:20:00,42.9,37.5,29.78,East,92,5.0,5.0,81,0.00,,,0.00,Wunderground v.1.15,2013-04-08 07:20:00,
2013-04-08 02:21:00,42.9,37.5,29.78,East,96,5.0,5.0,81,0.00,,,0.00,Wunderground v.1.15,2013-04-08 07:21:00,
2013-04-08 02:22:00,42.9,37.5,29.78,ESE,107,5.0,5.0,81,0.00,,,0.00,Wunderground v.1.15,2013-04-08 07:22:00,
2013-04-08 02:23:00,43.0,37.3,29.78,East,94,5.0,5.0,80,0.00,,,0.00,Wunderground v.1.15,2013-04-08 07:23:00,
2013-04-08 02:25:00,43.1,37.3,29.78,ESE,111,5.0,6.0,80,0.00,,,0.00,Wunderground v.1.15,2013-04-08 07:25:00,
2013-04-08 02:27:00,43.1,37.3,29.78,East,90,5.0,9.0,80,0.00,,,0.00,Wunderground v.1.15,2013-04-08 07:27:00,
2013-04-08 02:32:00,43.4,37.6,29.77,SE,137,5.0,6.0,80,0.00,,,0.00,Wunderground v.1.15,2013-04-08 07:32:00,
2013-04-08 02:33:00,43.4,37.6,29.78,East,90,5.0,12.0,80,0.00,,,0.00,Wunderground v.1.15,2013-04-08 07:33:00,
2013-04-08 02:34:00,43.5,37.4,29.78,East,95,6.0,12.0,79,0.00,,,0.00,Wunderground v.1.15,2013-04-08 07:34:00,
2013-04-08 02:37:00,43.7,37.6,29.77,ESE,104,6.0,12.0,79,0.00,,,0.00,Wunderground v.1.15,2013-04-08 07:37:00,
2013-04-08 02:38:00,43.7,37.6,29.77,ESE,105,6.0,12.0,79,0.00,,,0.00,Wunderground v.1.15,2013-04-08 07:38:00,
2013-04-08 02:39:00,43.7,37.6,29.77,East,101,6.0,12.0,79,0.00,,,0.00,Wunderground v.1.15,2013-04-08 07:39:00,
2013-04-08 02:45:00,43.9,37.5,29.77,ESE,111,7.0,9.0,78,0.00,,,0.00,Wunderground v.1.15,2013-04-08 07:45:00,
2013-04-08 02:46:00,43.9,37.5,29.77,East,99,6.0,9.0,78,0.00,,,0.00,Wunderground v.1.15,2013-04-08 07:46:00,
2013-04-08 02:47:00,43.9,37.8,29.77,ESE,113,7.0,9.0,79,0.00,,,0.00,Wunderground v.1.15,2013-04-08 07:47:00,
2013-04-08 02:48:00,43.9,37.8,29.77,East,92,7.0,9.0,79,0.00,,,0.00,Wunderground v.1.15,2013-04-08 07:48:00,
2013-04-08 02:52:00,43.8,37.7,29.78,East,101,6.0,12.0,79,0.00,,,0.00,Wunderground v.1.15,2013-04-08 07:52:00,
2013-04-08 02:53:00,43.8,37.7,29.78,ESE,106,6.0,12.0,79,0.00,,,0.00,Wunderground v.1.15,2013-04-08 07:53:00,
2013-04-08 02:54:00,43.8,37.7,29.78,ESE,123,6.0,12.0,79,0.00,,,0.00,Wunderground v.1.15,2013-04-08 07:54:00,
2013-04-08 02:58:00,43.8,37.7,29.78,ESE,119,5.0,12.0,79,0.00,,,0.00,Wunderground v.1.15,2013-04-08 07:58:00,
2013-04-08 02:59:00,43.8,37.7,29.77,ESE,108,5.0,12.0,79,0.00,,,0.00,Wunderground v.1.15,2013-04-08 07:59:00,
2013-04-08 03:02:00,43.8,37.7,29.77,SE,125,5.0,5.0,79,0.00,,,0.00,Wunderground v.1.15,2013-04-08 08:02:00,
2013-04-08 03:03:00,43.8,37.7,29.77,SE,124,5.0,5.0,79,0.00,,,0.00,Wunderground v.1.15,2013-04-08 08:03:00,
2013-04-08 03:04:00,43.8,37.7,29.77,ESE,105,5.0,9.0,79,0.00,,,0.00,Wunderground v.1.15,2013-04-08 08:04:00,
2013-04-08 03:07:00,43.8,37.7,29.76,ESE,111,4.0,9.0,79,0.00,,,0.00,Wunderground v.1.15,2013-04-08 08:07:00,
2013-04-08 03:09:00,43.8,38.0,29.76,ESE,104,4.0,9.0,80,0.00,,,0.00,Wunderground v.1.15,2013-04-08 08:09:00,
2013-04-08 03:11:00,43.8,38.0,29.76,East,101,4.0,7.0,80,0.00,,,0.00,Wunderground v.1.15,2013-04-08 08:11:00,
2013-04-08 03:12:00,43.8,37.7,29.76,East,90,4.0,7.0,79,0.00,,,0.00,Wunderground v.1.15,2013-04-08 08:12:00,
2013-04-08 03:15:00,43.9,38.1,29.77,ESE,119,5.0,7.0,80,0.00,,,0.00,Wunderground v.1.15,2013-04-08 08:15:00,
2013-04-08 03:16:00,43.9,38.1,29.77,East,94,4.0,7.0,80,0.00,,,0.00,Wunderground v.1.15,2013-04-08 08:16:00,
2013-04-08 03:19:00,44.0,38.2,29.76,East,98,4.0,7.0,80,0.00,,,0.00,Wunderground v.1.15,2013-04-08 08:19:00,
2013-04-08 03:22:00,44.0,38.2,29.76,East,96,4.0,4.0,80,0.00,,,0.00,Wunderground v.1.15,2013-04-08 08:22:00,
2013-04-08 03:23:00,44.1,38.3,29.76,East,99,4.0,4.0,80,0.00,,,0.00,Wunderground v.1.15,2013-04-08 08:23:00,
2013-04-08 03:27:00,44.2,38.4,29.75,ESE,111,3.0,4.0,80,0.00,,,0.00,Wunderground v.1.15,2013-04-08 08:27:00,
2013-04-08 03:28:00,44.2,38.4,29.75,ESE,111,3.0,4.0,80,0.00,,,0.00,Wunderground v.1.15,2013-04-08 08:28:00,
2013-04-08 03:29:00,44.2,38.4,29.75,East,98,3.0,4.0,80,0.00,,,0.00,Wunderground v.1.15,2013-04-08 08:29:00,
2013-04-08 03:35:00,44.4,38.6,29.74,ESE,116,4.0,5.0,80,0.00,,,0.00,Wunderground v.1.15,2013-04-08 08:35:00,
2013-04-08 03:36:00,44.4,38.6,29.74,ESE,118,4.0,5.0,80,0.00,,,0.00,Wunderground v.1.15,2013-04-08 08:36:00,
2013-04-08 03:42:00,44.6,38.8,29.74,ESE,115,4.0,10.0,80,0.00,,,0.00,Wunderground v.1.15,2013-04-08 08:42:00,
2013-04-08 03:44:00,44.6,38.8,29.74,ESE,121,4.0,10.0,80,0.00,,,0.00,Wunderground v.1.15,2013-04-08 08:44:00,
2013-04-08 03:45:00,44.6,38.8,29.74,ESE,118,4.0,10.0,80,0.00,,,0.00,Wunderground v.1.15,2013-04-08 08:45:00,
2013-04-08 03:46:00,44.6,38.8,29.75,SE,137,4.0,10.0,80,0.00,,,0.00,Wunderground v.1.15,2013-04-08 08:46:00,
2013-04-08 03:52:00,44.7,38.9,29.74,SSE,152,4.0,4.0,80,0.00,,,0.00,Wunderground v.1.15,2013-04-08 08:52:00,
2013-04-08 03:53:00,44.7,38.9,29.74,SSE,150,4.0,4.0,80,0.00,,,0.00,Wunderground v.1.15,2013-04-08 08:53:00,
2013-04-08 03:55:00,44.7,39.2,29.74,ESE,121,4.0,4.0,81,0.00,,,0.00,Wunderground v.1.15,2013-04-08 08:55:00,
2013-04-08 03:58:00,44.7,39.2,29.74,East,82,4.0,4.0,81,0.00,,,0.00,Wunderground v.1.15,2013-04-08 08:58:00,
2013-04-08 03:59:00,44.7,39.2,29.73,ESE,116,4.0,4.0,81,0.00,,,0.00,Wunderground v.1.15,2013-04-08 08:59:00,
2013-04-08 04:00:00,44.7,39.2,29.73,ESE,117,4.0,5.0,81,0.00,,,0.00,Wunderground v.1.15,2013-04-08 09:00:00,
2013-04-08 04:04:00,44.7,39.2,29.73,SE,128,3.0,5.0,81,0.00,,,0.00,Wunderground v.1.15,2013-04-08 09:04:00,
2013-04-08 04:05:00,44.7,39.2,29.73,SE,125,3.0,5.0,81,0.00,,,0.00,Wunderground v.1.15,2013-04-08 09:05:00,
2013-04-08 04:06:00,44.7,39.2,29.73,ESE,115,3.0,5.0,81,0.00,,,0.00,Wunderground v.1.15,2013-04-08 09:06:00,
2013-04-08 04:09:00,44.7,39.5,29.73,ESE,115,3.0,5.0,82,0.00,,,0.00,Wunderground v.1.15,2013-04-08 09:09:00,
2013-04-08 04:12:00,44.7,39.9,29.73,ESE,115,3.0,4.0,83,0.00,,,0.00,Wunderground v.1.15,2013-04-08 09:12:00,
2013-04-08 04:13:00,44.6,39.8,29.73,ESE,115,3.0,4.0,83,0.00,,,0.00,Wunderground v.1.15,2013-04-08 09:13:00,
2013-04-08 04:15:00,44.7,39.9,29.73,ESE,115,2.0,4.0,83,0.00,,,0.00,Wunderground v.1.15,2013-04-08 09:15:00,
2013-04-08 04:17:00,44.6,39.8,29.73,ESE,115,2.0,4.0,83,0.00,,,0.01,Wunderground v.1.15,2013-04-08 09:17:00,
2013-04-08 04:21:00,44.7,40.5,29.73,ESE,115,1.0,2.0,85,0.16,,,0.02,Wunderground v.1.15,2013-04-08 09:21:00,
2013-04-08 04:22:00,44.7,40.5,29.73,ESE,115,1.0,2.0,85,0.31,,,0.03,Wunderground v.1.15,2013-04-08 09:22:00,
2013-04-08 04:23:00,44.7,40.5,29.73,SE,129,1.0,2.0,85,0.31,,,0.03,Wunderground v.1.15,2013-04-08 09:23:00,
2013-04-08 04:27:00,44.7,40.8,29.73,SE,132,1.0,2.0,86,0.21,,,0.04,Wunderground v.1.15,2013-04-08 09:27:00,
2013-04-08 04:28:00,44.7,41.1,29.73,SE,130,1.0,2.0,87,0.19,,,0.05,Wunderground v.1.15,2013-04-08 09:28:00,
2013-04-08 04:33:00,44.7,41.4,29.73,SE,129,1.0,4.0,88,0.38,,,0.07,Wunderground v.1.15,2013-04-08 09:33:00,
2013-04-08 04:34:00,44.7,41.4,29.73,SE,128,1.0,4.0,88,0.38,,,0.07,Wunderground v.1.15,2013-04-08 09:34:00,
2013-04-08 04:40:00,44.7,41.7,29.72,SE,134,2.0,2.0,89,0.67,,,0.13,Wunderground v.1.15,2013-04-08 09:40:00,
2013-04-08 04:42:00,44.8,42.0,29.73,SE,134,2.0,4.0,90,0.57,,,0.14,Wunderground v.1.15,2013-04-08 09:42:00,
2013-04-08 04:43:00,44.8,42.0,29.72,SE,134,2.0,4.0,90,0.51,,,0.15,Wunderground v.1.15,2013-04-08 09:43:00,
2013-04-08 04:44:00,44.7,41.9,29.72,SE,134,2.0,4.0,90,0.51,,,0.16,Wunderground v.1.15,2013-04-08 09:44:00,
2013-04-08 04:47:00,44.8,42.0,29.72,SE,134,2.0,5.0,90,0.48,,,0.18,Wunderground v.1.15,2013-04-08 09:47:00,
2013-04-08 04:50:00,44.8,42.3,29.72,SE,134,2.0,2.0,91,0.58,,,0.21,Wunderground v.1.15,2013-04-08 09:50:00,
2013-04-08 04:52:00,44.9,42.4,29.72,SE,134,2.0,2.0,91,0.46,,,0.22,Wunderground v.1.15,2013-04-08 09:52:00,
2013-04-08 04:53:00,44.9,42.4,29.71,SE,134,2.0,2.0,91,0.46,,,0.23,Wunderground v.1.15,2013-04-08 09:53:00,
2013-04-08 04:54:00,44.9,42.4,29.71,SE,134,2.0,3.0,91,0.39,,,0.24,Wunderground v.1.15,2013-04-08 09:54:00,
2013-04-08 04:58:00,45.0,42.8,29.70,SE,126,2.0,4.0,92,0.46,,,0.27,Wunderground v.1.15,2013-04-08 09:58:00,
2013-04-08 05:00:00,45.1,42.9,29.70,SE,125,3.0,3.0,92,0.49,,,0.29,Wunderground v.1.15,2013-04-08 10:00:00,
2013-04-08 05:02:00,45.1,42.9,29.69,ESE,123,3.0,3.0,92,0.52,,,0.30,Wunderground v.1.15,2013-04-08 10:02:00,
2013-04-08 05:07:00,45.3,43.1,29.68,ESE,108,3.0,4.0,92,0.33,,,0.33,Wunderground v.1.15,2013-04-08 10:07:00,
2013-04-08 05:08:00,45.4,43.5,29.68,ESE,109,3.0,4.0,93,0.32,,,0.34,Wunderground v.1.15,2013-04-08 10:08:00,
2013-04-08 05:13:00,45.6,43.7,29.67,ESE,103,3.0,3.0,93,0.22,,,0.35,Wunderground v.1.15,2013-04-08 10:13:00,
2013-04-08 05:14:00,45.6,43.7,29.67,ESE,102,3.0,3.0,93,0.22,,,0.36,Wunderground v.1.15,2013-04-08 10:14:00,
2013-04-08 05:18:00,45.7,43.8,29.66,ESE,115,3.0,7.0,93,0.18,,,0.37,Wunderground v.1.15,2013-04-08 10:18:00,
2013-04-08 05:20:00,45.7,43.8,29.66,ESE,103,4.0,4.0,93,0.21,,,0.38,Wunderground v.1.15,2013-04-08 10:20:00,
2013-04-08 05:24:00,45.8,43.9,29.65,East,93,4.0,4.0,93,0.13,,,0.39,Wunderground v.1.15,2013-04-08 10:24:00,
2013-04-08 05:26:00,45.8,43.9,29.64,East,100,5.0,5.0,93,0.13,,,0.39,Wunderground v.1.15,2013-04-08 10:26:00,
2013-04-08 05:27:00,45.8,43.9,29.63,East,88,5.0,5.0,93,0.13,,,0.39,Wunderground v.1.15,2013-04-08 10:27:00,
2013-04-08 05:30:00,45.8,43.9,29.62,East,81,5.0,5.0,93,0.13,,,0.40,Wunderground v.1.15,2013-04-08 10:30:00,
2013-04-08 05:33:00,45.8,43.9,29.60,East,82,4.0,5.0,93,0.13,,,0.41,Wunderground v.1.15,2013-04-08 10:33:00,
2013-04-08 05:35:00,45.7,43.8,29.59,East,90,5.0,5.0,93,0.13,,,0.41,Wunderground v.1.15,2013-04-08 10:35:00,
2013-04-08 05:36:00,45.8,43.9,29.59,East,82,5.0,7.0,93,0.13,,,0.41,Wunderground v.1.15,2013-04-08 10:36:00,
2013-04-08 05:40:00,45.8,44.2,29.58,ENE,67,5.0,9.0,94,0.09,,,0.42,Wunderground v.1.15,2013-04-08 10:40:00,
2013-04-08 05:44:00,45.9,44.3,29.57,NE,38,5.0,11.0,94,0.09,,,0.42,Wunderground v.1.15,2013-04-08 10:44:00,
2013-04-08 05:45:00,45.9,44.3,29.57,East,81,5.0,11.0,94,0.11,,,0.43,Wunderground v.1.15,2013-04-08 10:45:00,
2013-04-08 05:46:00,46.0,44.4,29.57,ENE,74,5.0,11.0,94,0.11,,,0.43,Wunderground v.1.15,2013-04-08 10:46:00,
2013-04-08 05:50:00,46.2,44.6,29.58,East,84,5.0,5.0,94,0.11,,,0.44,Wunderground v.1.15,2013-04-08 10:50:00,
2013-04-08 05:51:00,46.2,44.6,29.58,East,83,5.0,5.0,94,0.11,,,0.44,Wunderground v.1.15,2013-04-08 10:51:00,
2013-04-08 05:53:00,46.3,44.7,29.58,East,101,5.0,5.0,94,0.26,,,0.45,Wunderground v.1.15,2013-04-08 10:53:00,
2013-04-08 05:55:00,46.4,44.8,29.58,ENE,72,5.0,9.0,94,0.37,,,0.47,Wunderground v.1.15,2013-04-08 10:55:00,
2013-04-08 05:56:00,46.4,44.8,29.58,ESE,114,5.0,9.0,94,0.37,,,0.47,Wunderground v.1.15,2013-04-08 10:56:00,
2013-04-08 06:00:00,46.5,44.9,29.59,East,88,5.0,5.0,94,0.18,,,0.48,Wunderground v.1.15,2013-04-08 11:00:00,
2013-04-08 06:02:00,46.6,45.0,29.60,East,91,5.0,5.0,94,0.17,,,0.48,Wunderground v.1.15,2013-04-08 11:02:00,
2013-04-08 06:06:00,46.7,45.1,29.59,ENE,61,4.0,5.0,94,0.49,,,0.51,Wunderground v.1.15,2013-04-08 11:06:00,
2013-04-08 06:07:00,46.7,45.1,29.59,ENE,74,4.0,5.0,94,0.65,,,0.52,Wunderground v.1.15,2013-04-08 11:07:00,
2013-04-08 06:12:00,46.9,45.5,29.57,East,80,3.0,6.0,95,0.55,,,0.62,Wunderground v.1.15,2013-04-08 11:12:00,
2013-04-08 06:13:00,46.9,45.5,29.57,East,88,4.0,9.0,95,0.47,,,0.62,Wunderground v.1.15,2013-04-08 11:13:00,
2013-04-08 06:17:00,47.5,46.1,29.57,East,93,5.0,10.0,95,0.21,,,0.64,Wunderground v.1.15,2013-04-08 11:17:00,
2013-04-08 06:18:00,47.6,46.2,29.57,ESE,114,6.0,11.0,95,0.16,,,0.65,Wunderground v.1.15,2013-04-08 11:18:00,
2013-04-08 06:23:00,48.1,46.7,29.57,East,96,7.0,11.0,95,0.26,,,0.67,Wunderground v.1.15,2013-04-08 11:23:00,
2013-04-08 06:24:00,48.1,46.7,29.57,ESE,121,7.0,11.0,95,0.26,,,0.67,Wunderground v.1.15,2013-04-08 11:24:00,
2013-04-08 06:29:00,48.1,46.7,29.56,East,101,8.0,16.0,95,0.12,,,0.68,Wunderground v.1.15,2013-04-08 11:29:00,
2013-04-08 06:30:00,48.1,46.7,29.56,East,97,8.0,10.0,95,0.21,,,0.69,Wunderground v.1.15,2013-04-08 11:30:00,
2013-04-08 06:32:00,48.2,46.8,29.56,ESE,110,8.0,10.0,95,0.21,,,0.69,Wunderground v.1.15,2013-04-08 11:32:00,
2013-04-08 06:36:00,48.5,47.1,29.56,SSE,148,7.0,10.0,95,0.09,,,0.69,Wunderground v.1.15,2013-04-08 11:36:00,
2013-04-08 06:37:00,48.6,47.2,29.56,SE,126,7.0,10.0,95,0.08,,,0.69,Wunderground v.1.15,2013-04-08 11:37:00,
2013-04-08 06:39:00,48.7,47.3,29.57,SSE,162,7.0,10.0,95,0.07,,,0.69,Wunderground v.1.15,2013-04-08 11:39:00,
2013-04-08 06:43:00,49.5,48.4,29.55,ESE,116,7.0,19.0,96,0.05,,,0.69,Wunderground v.1.15,2013-04-08 11:43:00,
2013-04-08 06:45:00,50.1,49.0,29.55,SE,142,7.0,19.0,96,0.04,,,0.69,Wunderground v.1.15,2013-04-08 11:45:00,
2013-04-08 06:46:00,50.2,49.1,29.55,SE,133,8.0,19.0,96,0.04,,,0.69,Wunderground v.1.15,2013-04-08 11:46:00,
2013-04-08 06:52:00,51.0,49.9,29.55,SE,130,8.0,11.0,96,0.00,,,0.70,Wunderground v.1.15,2013-04-08 11:52:00,
2013-04-08 06:53:00,51.2,50.1,29.55,SSE,158,8.0,11.0,96,0.00,,,0.70,Wunderground v.1.15,2013-04-08 11:53:00,
2013-04-08 06:54:00,51.3,50.2,29.55,SE,136,8.0,11.0,96,0.20,,,0.70,Wunderground v.1.15,2013-04-08 11:54:00,
2013-04-08 06:55:00,51.4,50.3,29.55,SE,130,8.0,12.0,96,0.20,,,0.71,Wunderground v.1.15,2013-04-08 11:55:00,
2013-04-08 07:00:00,52.1,51.0,29.55,SSE,167,8.0,8.0,96,0.15,,,0.72,Wunderground v.1.15,2013-04-08 12:00:00,
2013-04-08 07:03:00,52.4,51.3,29.55,SSW,198,8.0,13.0,96,0.13,,,0.73,Wunderground v.1.15,2013-04-08 12:03:00,
2013-04-08 07:05:00,52.7,51.6,29.55,SSE,167,9.0,13.0,96,0.13,,,0.73,Wunderground v.1.15,2013-04-08 12:05:00,
2013-04-08 07:07:00,52.8,51.7,29.54,SE,146,8.0,13.0,96,0.13,,,0.73,Wunderground v.1.15,2013-04-08 12:07:00,
2013-04-08 07:08:00,53.0,51.9,29.54,South,170,8.0,13.0,96,0.11,,,0.73,Wunderground v.1.15,2013-04-08 12:08:00,
2013-04-08 07:10:00,53.1,52.0,29.55,SW,223,8.0,18.0,96,0.08,,,0.73,Wunderground v.1.15,2013-04-08 12:10:00,
2013-04-08 07:15:00,53.6,52.5,29.54,SSW,200,10.0,20.0,96,0.05,,,0.73,Wunderground v.1.15,2013-04-08 12:15:00,
2013-04-08 07:17:00,53.7,52.6,29.54,SSW,192,10.0,20.0,96,0.04,,,0.73,Wunderground v.1.15,2013-04-08 12:17:00,
2013-04-08 07:18:00,53.9,52.8,29.54,SSW,207,10.0,20.0,96,0.04,,,0.73,Wunderground v.1.15,2013-04-08 12:18:00,
2013-04-08 07:24:00,54.2,53.1,29.53,SSW,195,10.0,11.0,96,0.00,,,0.73,Wunderground v.1.15,2013-04-08 12:24:00,
2013-04-08 07:29:00,54.5,53.4,29.53,SSW,196,9.0,13.0,96,0.00,,,0.73,Wunderground v.1.15,2013-04-08 12:29:00,
2013-04-08 07:31:00,54.6,53.5,29.53,SW,227,9.0,18.0,96,0.00,,,0.73,Wunderground v.1.15,2013-04-08 12:31:00,
2013-04-08 07:32:00,54.6,53.2,29.53,South,169,9.0,18.0,95,0.00,,,0.73,Wunderground v.1.15,2013-04-08 12:32:00,
2013-04-08 07:33:00,54.7,53.6,29.53,South,178,9.0,18.0,96,0.00,,,0.73,Wunderground v.1.15,2013-04-08 12:33:00,
2013-04-08 07:35:00,54.8,53.4,29.53,SSW,196,10.0,18.0,95,0.00,,,0.73,Wunderground v.1.15,2013-04-08 12:35:00,
2013-04-08 07:38:00,54.9,53.5,29.52,South,175,11.0,21.0,95,0.00,,,0.73,Wunderground v.1.15,2013-04-08 12:38:00,
2013-04-08 07:41:00,54.9,53.5,29.52,SSE,163,11.0,19.0,95,0.00,,,0.73,Wunderground v.1.15,2013-04-08 12:41:00,
2013-04-08 07:42:00,55.0,53.6,29.52,SSW,208,11.0,19.0,95,0.00,,,0.73,Wunderground v.1.15,2013-04-08 12:42:00,
2013-04-08 07:47:00,55.1,53.4,29.52,SSW,197,12.0,19.0,94,0.00,,,0.73,Wunderground v.1.15,2013-04-08 12:47:00,
2013-04-08 07:48:00,55.1,53.1,29.52,SSW,200,12.0,19.0,93,0.00,,,0.73,Wunderground v.1.15,2013-04-08 12:48:00,
2013-04-08 07:50:00,55.1,53.1,29.52,South,180,12.0,12.0,93,0.00,,,0.73,Wunderground v.1.15,2013-04-08 12:50:00,
2013-04-08 07:53:00,55.2,53.2,29.52,SW,223,13.0,14.0,93,0.00,,,0.74,Wunderground v.1.15,2013-04-08 12:53:00,
2013-04-08 07:55:00,55.1,52.8,29.52,SSW,203,13.0,14.0,92,0.00,,,0.74,Wunderground v.1.15,2013-04-08 12:55:00,
2013-04-08 07:57:00,55.1,52.8,29.52,South,188,13.0,17.0,92,0.00,,,0.74,Wunderground v.1.15,2013-04-08 12:57:00,
2013-04-08 07:58:00,55.0,52.7,29.52,South,188,13.0,17.0,92,0.00,,,0.74,Wunderground v.1.15,2013-04-08 12:58:00,
2013-04-08 07:59:00,55.0,52.7,29.52,SSE,160,13.0,17.0,92,0.00,,,0.74,Wunderground v.1.15,2013-04-08 12:59:00,
2013-04-08 08:02:00,54.9,52.6,29.51,South,170,13.0,15.0,92,0.43,,,0.76,Wunderground v.1.15,2013-04-08 13:02:00,
2013-04-08 08:04:00,54.8,52.5,29.51,SSE,167,13.0,15.0,92,0.17,,,0.76,Wunderground v.1.15,2013-04-08 13:04:00,
2013-04-08 08:05:00,54.7,52.4,29.50,SSW,206,13.0,15.0,92,0.12,,,0.76,Wunderground v.1.15,2013-04-08 13:05:00,
2013-04-08 08:08:00,54.6,52.3,29.50,South,178,13.0,15.0,92,0.09,,,0.77,Wunderground v.1.15,2013-04-08 13:08:00,
2013-04-08 08:10:00,54.5,52.2,29.50,SW,218,12.0,12.0,92,0.09,,,0.77,Wunderground v.1.15,2013-04-08 13:10:00,
2013-04-08 08:15:00,54.4,52.4,29.49,SSW,203,11.0,14.0,93,0.07,,,0.77,Wunderground v.1.15,2013-04-08 13:15:00,
2013-04-08 08:17:00,54.4,52.4,29.49,South,188,10.0,14.0,93,0.06,,,0.77,Wunderground v.1.15,2013-04-08 13:17:00,
2013-04-08 08:18:00,54.4,52.4,29.49,SW,232,11.0,14.0,93,0.06,,,0.77,Wunderground v.1.15,2013-04-08 13:18:00,
2013-04-08 08:22:00,54.4,52.4,29.50,West,275,11.0,12.0,93,0.04,,,0.77,Wunderground v.1.15,2013-04-08 13:22:00,
2013-04-08 08:23:00,54.4,52.4,29.50,SW,235,11.0,12.0,93,0.04,,,0.77,Wunderground v.1.15,2013-04-08 13:23:00,
2013-04-08 08:24:00,54.3,52.0,29.50,WSW,249,11.0,12.0,92,0.04,,,0.77,Wunderground v.1.15,2013-04-08 13:24:00,
2013-04-08 08:25:00,54.3,52.3,29.50,SSW,203,10.0,12.0,93,0.00,,,0.77,Wunderground v.1.15,2013-04-08 13:25:00,
2013-04-08 08:29:00,54.1,51.8,29.51,WSW,243,10.0,14.0,92,0.00,,,0.77,Wunderground v.1.15,2013-04-08 13:29:00,
2013-04-08 08:30:00,54.0,51.7,29.51,SW,221,10.0,10.0,92,0.00,,,0.77,Wunderground v.1.15,2013-04-08 13:30:00,
2013-04-08 08:33:00,53.9,51.6,29.52,WSW,242,8.0,14.0,92,0.00,,,0.77,Wunderground v.1.15,2013-04-08 13:33:00,
2013-04-08 08:36:00,53.5,50.9,29.53,WSW,252,8.0,14.0,91,0.00,,,0.77,Wunderground v.1.15,2013-04-08 13:36:00,
2013-04-08 08:40:00,52.6,50.0,29.54,SW,226,9.0,10.0,91,0.00,,,0.77,Wunderground v.1.15,2013-04-08 13:40:00,
2013-04-08 08:42:00,52.2,49.7,29.55,SW,232,10.0,15.0,91,0.00,,,0.77,Wunderground v.1.15,2013-04-08 13:42:00,
2013-04-08 08:43:00,51.9,49.1,29.55,SSW,207,10.0,15.0,90,0.00,,,0.77,Wunderground v.1.15,2013-04-08 13:43:00,
2013-04-08 08:45:00,51.2,48.4,29.55,WSW,237,11.0,15.0,90,0.00,,,0.77,Wunderground v.1.15,2013-04-08 13:45:00,
2013-04-08 08:48:00,50.7,47.9,29.56,SW,224,12.0,15.0,90,0.00,,,0.77,Wunderground v.1.15,2013-04-08 13:48:00,
2013-04-08 08:49:00,50.5,48.0,29.57,SW,234,12.0,15.0,91,0.00,,,0.77,Wunderground v.1.15,2013-04-08 13:49:00,
2013-04-08 08:52:00,50.1,47.6,29.57,SSW,209,11.0,14.0,91,0.00,,,0.77,Wunderground v.1.15,2013-04-08 13:52:00,
2013-04-08 08:55:00,49.7,47.5,29.58,SW,233,10.0,16.0,92,0.00,,,0.77,Wunderground v.1.15,2013-04-08 13:55:00,
2013-04-08 09:00:00,49.2,47.0,29.59,WSW,240,10.0,10.0,92,0.00,,,0.77,Wunderground v.1.15,2013-04-08 14:00:00,
2013-04-08 09:01:00,49.2,47.0,29.59,SW,230,10.0,10.0,92,0.00,,,0.77,Wunderground v.1.15,2013-04-08 14:01:00,
2013-04-08 09:02:00,49.1,46.9,29.59,WSW,248,9.0,10.0,92,0.00,,,0.77,Wunderground v.1.15,2013-04-08 14:02:00,
2013-04-08 09:04:00,49.0,46.8,29.60,WSW,238,9.0,13.0,92,0.00,,,0.77,Wunderground v.1.15,2013-04-08 14:04:00,
2013-04-08 09:05:00,48.8,46.6,29.60,SW,231,9.0,13.0,92,0.00,,,0.77,Wunderground v.1.15,2013-04-08 14:05:00,
2013-04-08 09:10:00,48.7,46.8,29.61,SSW,205,9.0,16.0,93,0.00,,,0.77,Wunderground v.1.15,2013-04-08 14:10:00,
2013-04-08 09:11:00,48.7,46.8,29.61,SW,227,9.0,16.0,93,0.00,,,0.77,Wunderground v.1.15,2013-04-08 14:11:00,
2013-04-08 09:13:00,48.7,46.8,29.62,WSW,247,9.0,16.0,93,0.00,,,0.77,Wunderground v.1.15,2013-04-08 14:13:00,
2013-04-08 09:17:00,48.7,46.8,29.62,SW,232,9.0,16.0,93,0.00,,,0.77,Wunderground v.1.15,2013-04-08 14:17:00,
2013-04-08 09:18:00,48.7,46.8,29.62,WSW,252,10.0,16.0,93,0.00,,,0.77,Wunderground v.1.15,2013-04-08 14:18:00,
2013-04-08 09:19:00,48.6,46.7,29.63,WSW,244,9.0,16.0,93,0.00,,,0.77,Wunderground v.1.15,2013-04-08 14:19:00,
2013-04-08 09:23:00,48.7,46.8,29.63,WSW,244,9.0,11.0,93,0.00,,,0.77,Wunderground v.1.15,2013-04-08 14:23:00,
2013-04-08 09:24:00,48.6,46.7,29.63,West,270,9.0,11.0,93,0.00,,,0.77,Wunderground v.1.15,2013-04-08 14:24:00,
2013-04-08 09:30:00,48.6,46.7,29.64,WSW,254,9.0,9.0,93,0.00,,,0.77,Wunderground v.1.15,2013-04-08 14:30:00,
2013-04-08 09:33:00,48.6,46.7,29.64,West,281,8.0,11.0,93,0.00,,,0.77,Wunderground v.1.15,2013-04-08 14:33:00,
2013-04-08 09:36:00,48.6,46.7,29.64,West,265,8.0,11.0,93,0.00,,,0.77,Wunderground v.1.15,2013-04-08 14:36:00,
2013-04-08 09:37:00,48.6,46.7,29.64,WSW,237,8.0,11.0,93,0.00,,,0.77,Wunderground v.1.15,2013-04-08 14:37:00,
2013-04-08 09:40:00,48.6,46.7,29.64,SW,217,7.0,7.0,93,0.00,,,0.77,Wunderground v.1.15,2013-04-08 14:40:00,
2013-04-08 09:42:00,48.7,46.8,29.64,West,264,7.0,7.0,93,0.00,,,0.77,Wunderground v.1.15,2013-04-08 14:42:00,
2013-04-08 09:43:00,48.7,46.8,29.65,West,279,7.0,12.0,93,0.00,,,0.77,Wunderground v.1.15,2013-04-08 14:43:00,
2013-04-08 09:45:00,48.6,46.7,29.65,West,259,7.0,16.0,93,0.00,,,0.77,Wunderground v.1.15,2013-04-08 14:45:00,
2013-04-08 09:48:00,48.5,46.6,29.66,West,263,7.0,16.0,93,0.00,,,0.77,Wunderground v.1.15,2013-04-08 14:48:00,
2013-04-08 09:50:00,48.5,46.6,29.66,West,270,6.0,6.0,93,0.00,,,0.77,Wunderground v.1.15,2013-04-08 14:50:00,
2013-04-08 09:52:00,48.4,46.5,29.66,WSW,250,6.0,14.0,93,0.00,,,0.77,Wunderground v.1.15,2013-04-08 14:52:00,
2013-04-08 09:53:00,48.4,46.5,29.66,West,259,6.0,14.0,93,0.00,,,0.77,Wunderground v.1.15,2013-04-08 14:53:00,
2013-04-08 09:57:00,48.2,46.3,29.67,West,271,5.0,14.0,93,0.00,,,0.77,Wunderground v.1.15,2013-04-08 14:57:00,
2013-04-08 09:58:00,48.2,46.3,29.67,WNW,286,5.0,14.0,93,0.00,,,0.77,Wunderground v.1.15,2013-04-08 14:58:00,
2013-04-08 10:00:00,48.1,46.2,29.67,WNW,282,4.0,5.0,93,0.00,,,0.77,Wunderground v.1.15,2013-04-08 15:00:00,
2013-04-08 10:03:00,48.0,46.1,29.68,WSW,242,4.0,7.0,93,0.00,,,0.77,Wunderground v.1.15,2013-04-08 15:03:00,
2013-04-08 10:05:00,47.9,46.0,29.68,WSW,257,4.0,7.0,93,0.00,,,0.77,Wunderground v.1.15,2013-04-08 15:05:00,
2013-04-08 10:06:00,47.9,46.0,29.68,West,271,4.0,7.0,93,0.00,,,0.77,Wunderground v.1.15,2013-04-08 15:06:00,
2013-04-08 10:09:00,47.7,45.8,29.68,WSW,245,4.0,9.0,93,0.00,,,0.77,Wunderground v.1.15,2013-04-08 15:09:00,
2013-04-08 10:10:00,47.6,45.7,29.68,WNW,289,5.0,5.0,93,0.00,,,0.77,Wunderground v.1.15,2013-04-08 15:10:00,
2013-04-08 10:14:00,47.5,45.6,29.69,WSW,240,5.0,9.0,93,0.00,,,0.77,Wunderground v.1.15,2013-04-08 15:14:00,
2013-04-08 10:15:00,47.5,45.6,29.69,WSW,242,5.0,9.0,93,0.00,,,0.77,Wunderground v.1.15,2013-04-08 15:15:00,
2013-04-08 10:17:00,47.4,45.5,29.69,WSW,249,6.0,9.0,93,0.00,,,0.77,Wunderground v.1.15,2013-04-08 15:17:00,
2013-04-08 10:18:00,47.4,45.5,29.69,SW,232,6.0,9.0,93,0.00,,,0.77,Wunderground v.1.15,2013-04-08 15:18:00,
2013-04-08 10:20:00,47.4,45.5,29.69,WSW,248,5.0,5.0,93,0.00,,,0.77,Wunderground v.1.15,2013-04-08 15:20:00,
2013-04-08 10:23:00,47.4,45.5,29.69,WSW,245,5.0,6.0,93,0.00,,,0.77,Wunderground v.1.15,2013-04-08 15:23:00,
2013-04-08 10:26:00,47.3,45.4,29.69,WSW,246,4.0,9.0,93,0.00,,,0.77,Wunderground v.1.15,2013-04-08 15:26:00,
2013-04-08 10:28:00,47.4,45.5,29.69,WSW,246,4.0,9.0,93,0.00,,,0.77,Wunderground v.1.15,2013-04-08 15:28:00,
2013-04-08 10:32:00,47.5,45.9,29.70,WSW,254,4.0,4.0,94,0.00,,,0.77,Wunderground v.1.15,2013-04-08 15:32:00,
2013-04-08 10:34:00,47.5,45.9,29.70,West,269,4.0,5.0,94,0.00,,,0.77,Wunderground v.1.15,2013-04-08 15:34:00,
2013-04-08 10:35:00,47.6,46.0,29.70,West,267,4.0,5.0,94,0.00,,,0.77,Wunderground v.1.15,2013-04-08 15:35:00,
2013-04-08 10:37:00,47.7,46.1,29.70,West,267,4.0,5.0,94,0.00,,,0.77,Wunderground v.1.15,2013-04-08 15:37:00,
2013-04-08 10:39:00,47.9,46.3,29.70,WSW,245,4.0,5.0,94,0.00,,,0.77,Wunderground v.1.15,2013-04-08 15:39:00,
2013-04-08 10:43:00,48.3,46.9,29.70,SW,235,4.0,5.0,95,0.00,,,0.77,Wunderground v.1.15,2013-04-08 15:43:00,
2013-04-08 10:48:00,48.9,47.5,29.71,WSW,244,3.0,10.0,95,0.00,,,0.77,Wunderground v.1.15,2013-04-08 15:48:00,
2013-04-08 10:49:00,49.0,47.6,29.71,WSW,257,3.0,10.0,95,0.00,,,0.77,Wunderground v.1.15,2013-04-08 15:49:00,
2013-04-08 10:51:00,49.1,47.4,29.71,WSW,257,4.0,5.0,94,0.00,,,0.77,Wunderground v.1.15,2013-04-08 15:51:00,
2013-04-08 10:54:00,49.3,47.6,29.71,West,267,4.0,6.0,94,0.00,,,0.77,Wunderground v.1.15,2013-04-08 15:54:00,
2013-04-08 10:55:00,49.3,47.6,29.71,SSW,200,5.0,6.0,94,0.00,,,0.77,Wunderground v.1.15,2013-04-08 15:55:00,
2013-04-08 10:57:00,49.3,47.6,29.72,West,264,5.0,6.0,94,0.00,,,0.77,Wunderground v.1.15,2013-04-08 15:57:00,
2013-04-08 11:00:00,49.4,47.7,29.72,WSW,251,5.0,5.0,94,0.00,,,0.77,Wunderground v.1.15,2013-04-08 16:00:00,
2013-04-08 11:02:00,49.6,47.9,29.72,West,269,4.0,5.0,94,0.00,,,0.77,Wunderground v.1.15,2013-04-08 16:02:00,
2013-04-08 11:04:00,49.7,48.0,29.72,WSW,240,4.0,7.0,94,0.00,,,0.77,Wunderground v.1.15,2013-04-08 16:04:00,
2013-04-08 11:07:00,50.0,48.3,29.72,SW,234,5.0,7.0,94,0.00,,,0.77,Wunderground v.1.15,2013-04-08 16:07:00,
2013-04-08 11:12:00,50.5,48.8,29.72,WSW,257,5.0,8.0,94,0.00,,,0.77,Wunderground v.1.15,2013-04-08 16:12:00,
2013-04-08 11:13:00,50.5,48.6,29.72,SW,234,6.0,8.0,93,0.00,,,0.77,Wunderground v.1.15,2013-04-08 16:13:00,
2013-04-08 11:15:00,50.6,48.7,29.72,SW,229,6.0,8.0,93,0.00,,,0.77,Wunderground v.1.15,2013-04-08 16:15:00,
2013-04-08 11:18:00,50.8,48.8,29.73,WSW,242,6.0,8.0,93,0.00,,,0.77,Wunderground v.1.15,2013-04-08 16:18:00,
2013-04-08 11:22:00,51.1,49.1,29.73,WSW,244,6.0,9.0,93,0.00,,,0.77,Wunderground v.1.15,2013-04-08 16:22:00,
2013-04-08 11:23:00,51.2,49.2,29.73,SW,234,6.0,9.0,93,0.00,,,0.77,Wunderground v.1.15,2013-04-08 16:23:00,
2013-04-08 11:26:00,51.5,49.5,29.73,SW,221,6.0,9.0,93,0.00,,,0.77,Wunderground v.1.15,2013-04-08 16:26:00,
2013-04-08 11:28:00,51.7,49.7,29.74,SW,228,6.0,9.0,93,0.00,,,0.77,Wunderground v.1.15,2013-04-08 16:28:00,
2013-04-08 11:32:00,52.1,50.1,29.74,WSW,246,6.0,6.0,93,0.00,,,0.77,Wunderground v.1.15,2013-04-08 16:32:00,
2013-04-08 11:33:00,52.1,50.1,29.74,South,175,6.0,7.0,93,0.00,,,0.77,Wunderground v.1.15,2013-04-08 16:33:00,
2013-04-08 11:38:00,52.8,50.8,29.73,WSW,256,6.0,11.0,93,0.00,,,0.77,Wunderground v.1.15,2013-04-08 16:38:00,
2013-04-08 11:39:00,52.9,50.6,29.73,West,271,6.0,11.0,92,0.00,,,0.77,Wunderground v.1.15,2013-04-08 16:39:00,
2013-04-08 11:42:00,53.2,50.9,29.73,WSW,245,6.0,6.0,92,0.00,,,0.77,Wunderground v.1.15,2013-04-08 16:42:00,
2013-04-08 11:45:00,53.8,51.5,29.74,WSW,249,6.0,6.0,92,0.00,,,0.77,Wunderground v.1.15,2013-04-08 16:45:00,
2013-04-08 11:47:00,53.9,51.6,29.74,WSW,249,6.0,6.0,92,0.00,,,0.77,Wunderground v.1.15,2013-04-08 16:47:00,
2013-04-08 11:48:00,54.0,51.4,29.74,WSW,250,6.0,6.0,91,0.00,,,0.77,Wunderground v.1.15,2013-04-08 16:48:00,
2013-04-08 11:50:00,54.3,51.7,29.74,WSW,244,6.0,6.0,91,0.00,,,0.77,Wunderground v.1.15,2013-04-08 16:50:00,
2013-04-08 11:53:00,54.5,51.9,29.74,WSW,257,6.0,8.0,91,0.00,,,0.77,Wunderground v.1.15,2013-04-08 16:53:00,
2013-04-08 11:54:00,54.6,51.7,29.74,WSW,250,6.0,8.0,90,0.00,,,0.77,Wunderground v.1.15,2013-04-08 16:54:00,
2013-04-08 11:55:00,54.6,51.7,29.74,WSW,246,6.0,8.0,90,0.00,,,0.77,Wunderground v.1.15,2013-04-08 16:55:00,
2013-04-08 12:00:00,54.9,52.0,29.74,WSW,246,6.0,7.0,90,0.00,,,0.77,Wunderground v.1.15,2013-04-08 17:00:00,
2013-04-08 12:02:00,55.0,52.1,29.74,SW,231,6.0,10.0,90,0.00,,,0.77,Wunderground v.1.15,2013-04-08 17:02:00,
2013-04-08 12:05:00,55.3,52.4,29.74,West,262,6.0,10.0,90,0.00,,,0.77,Wunderground v.1.15,2013-04-08 17:05:00,
2013-04-08 12:08:00,55.4,52.2,29.74,WSW,252,6.0,10.0,89,0.00,,,0.77,Wunderground v.1.15,2013-04-08 17:08:00,
2013-04-08 12:12:00,55.7,52.5,29.75,SW,225,6.0,9.0,89,0.00,,,0.77,Wunderground v.1.15,2013-04-08 17:12:00,
2013-04-08 12:14:00,55.8,52.6,29.75,SW,229,6.0,9.0,89,0.00,,,0.77,Wunderground v.1.15,2013-04-08 17:14:00,
2013-04-08 12:16:00,56.0,52.8,29.74,WSW,243,6.0,9.0,89,0.00,,,0.77,Wunderground v.1.15,2013-04-08 17:16:00,
2013-04-08 12:22:00,56.9,53.4,29.75,WNW,286,6.0,6.0,88,0.00,,,0.77,Wunderground v.1.15,2013-04-08 17:22:00,
2013-04-08 12:23:00,57.0,53.2,29.75,WSW,250,6.0,6.0,87,0.00,,,0.77,Wunderground v.1.15,2013-04-08 17:23:00,
2013-04-08 12:24:00,57.0,53.5,29.75,West,261,6.0,6.0,88,0.00,,,0.77,Wunderground v.1.15,2013-04-08 17:24:00,
2013-04-08 12:26:00,57.2,53.7,29.75,WSW,246,6.0,9.0,88,0.00,,,0.77,Wunderground v.1.15,2013-04-08 17:26:00,
2013-04-08 12:29:00,57.5,53.3,29.75,SW,234,6.0,9.0,86,0.00,,,0.77,Wunderground v.1.15,2013-04-08 17:29:00,
2013-04-08 12:31:00,57.5,53.3,29.75,WSW,244,6.0,6.0,86,0.00,,,0.77,Wunderground v.1.15,2013-04-08 17:31:00,
2013-04-08 12:33:00,57.5,53.3,29.75,WSW,252,5.0,6.0,86,0.00,,,0.77,Wunderground v.1.15,2013-04-08 17:33:00,
2013-04-08 12:34:00,57.6,53.4,29.75,WSW,251,5.0,6.0,86,0.00,,,0.77,Wunderground v.1.15,2013-04-08 17:34:00,
2013-04-08 12:39:00,57.9,53.7,29.75,WSW,255,4.0,8.0,86,0.00,,,0.77,Wunderground v.1.15,2013-04-08 17:39:00,
2013-04-08 12:40:00,58.0,53.8,29.75,West,259,4.0,9.0,86,0.00,,,0.77,Wunderground v.1.15,2013-04-08 17:40:00,
2013-04-08 12:41:00,58.0,53.8,29.75,WSW,258,4.0,9.0,86,0.00,,,0.77,Wunderground v.1.15,2013-04-08 17:41:00,
2013-04-08 12:42:00,58.1,53.9,29.75,WSW,243,5.0,10.0,86,0.00,,,0.77,Wunderground v.1.15,2013-04-08 17:42:00,
2013-04-08 12:45:00,58.4,53.6,29.75,SW,235,6.0,10.0,84,0.00,,,0.77,Wunderground v.1.15,2013-04-08 17:45:00,
2013-04-08 12:47:00,58.5,54.0,29.75,SW,229,6.0,10.0,85,0.00,,,0.77,Wunderground v.1.15,2013-04-08 17:47:00,
2013-04-08 12:48:00,58.5,54.0,29.75,West,265,6.0,10.0,85,0.00,,,0.77,Wunderground v.1.15,2013-04-08 17:48:00,
2013-04-08 12:49:00,58.6,54.1,29.75,WSW,246,6.0,10.0,85,0.00,,,0.77,Wunderground v.1.15,2013-04-08 17:49:00,
2013-04-08 12:54:00,58.8,54.3,29.75,WSW,246,6.0,10.0,85,0.00,,,0.77,Wunderground v.1.15,2013-04-08 17:54:00,
2013-04-08 12:55:00,58.9,54.4,29.75,WSW,238,5.0,10.0,85,0.00,,,0.77,Wunderground v.1.15,2013-04-08 17:55:00,
2013-04-08 12:56:00,58.9,54.4,29.75,WSW,252,5.0,10.0,85,0.00,,,0.77,Wunderground v.1.15,2013-04-08 17:56:00,
2013-04-08 12:58:00,58.9,53.7,29.75,WSW,239,6.0,10.0,83,0.00,,,0.77,Wunderground v.1.15,2013-04-08 17:58:00,
2013-04-08 13:02:00,58.9,53.7,29.76,WSW,256,5.0,6.0,83,0.00,,,0.77,Wunderground v.1.15,2013-04-08 18:02:00,
2013-04-08 13:03:00,58.9,53.4,29.75,WSW,255,5.0,6.0,82,0.00,,,0.77,Wunderground v.1.15,2013-04-08 18:03:00,
2013-04-08 13:05:00,58.9,54.1,29.75,WSW,250,5.0,6.0,84,0.00,,,0.77,Wunderground v.1.15,2013-04-08 18:05:00,
2013-04-08 13:08:00,58.9,53.4,29.75,West,271,4.0,6.0,82,0.00,,,0.77,Wunderground v.1.15,2013-04-08 18:08:00,
2013-04-08 13:09:00,59.0,53.5,29.75,WSW,248,4.0,6.0,82,0.00,,,0.77,Wunderground v.1.15,2013-04-08 18:09:00,
2013-04-08 13:12:00,59.1,54.3,29.75,West,259,3.0,4.0,84,0.00,,,0.77,Wunderground v.1.15,2013-04-08 18:12:00,
2013-04-08 13:14:00,59.4,54.9,29.75,WSW,254,4.0,4.0,85,0.00,,,0.77,Wunderground v.1.15,2013-04-08 18:14:00,
2013-04-08 13:15:00,59.5,55.0,29.75,West,259,4.0,10.0,85,0.00,,,0.77,Wunderground v.1.15,2013-04-08 18:15:00,
2013-04-08 13:18:00,59.9,55.4,29.75,WSW,250,4.0,10.0,85,0.00,,,0.77,Wunderground v.1.15,2013-04-08 18:18:00,
2013-04-08 13:19:00,60.0,55.5,29.76,WSW,248,4.0,10.0,85,0.00,,,0.77,Wunderground v.1.15,2013-04-08 18:19:00,
2013-04-08 13:22:00,60.3,54.8,29.76,WSW,254,5.0,10.0,82,0.00,,,0.77,Wunderground v.1.15,2013-04-08 18:22:00,
2013-04-08 13:24:00,60.4,54.9,29.75,WSW,237,5.0,10.0,82,0.00,,,0.77,Wunderground v.1.15,2013-04-08 18:24:00,
2013-04-08 13:27:00,60.7,55.5,29.75,WSW,246,5.0,10.0,83,0.00,,,0.77,Wunderground v.1.15,2013-04-08 18:27:00,
2013-04-08 13:29:00,60.9,55.0,29.75,SW,224,5.0,10.0,81,0.00,,,0.77,Wunderground v.1.15,2013-04-08 18:29:00,
2013-04-08 13:32:00,61.1,55.2,29.75,SW,227,5.0,7.0,81,0.00,,,0.77,Wunderground v.1.15,2013-04-08 18:32:00,
2013-04-08 13:35:00,61.3,55.4,29.75,SW,232,5.0,9.0,81,0.00,,,0.77,Wunderground v.1.15,2013-04-08 18:35:00,
2013-04-08 13:37:00,61.4,55.2,29.76,SW,233,5.0,9.0,80,0.00,,,0.77,Wunderground v.1.15,2013-04-08 18:37:00,
2013-04-08 13:38:00,61.5,55.3,29.76,SW,223,5.0,9.0,80,0.00,,,0.77,Wunderground v.1.15,2013-04-08 18:38:00,
2013-04-08 13:40:00,61.8,55.9,29.76,WSW,252,4.0,4.0,81,0.00,,,0.77,Wunderground v.1.15,2013-04-08 18:40:00,
2013-04-08 13:43:00,62.1,56.5,29.76,WSW,257,4.0,4.0,82,0.00,,,0.77,Wunderground v.1.15,2013-04-08 18:43:00,
2013-04-08 13:44:00,62.2,56.0,29.76,WSW,242,3.0,7.0,80,0.00,,,0.77,Wunderground v.1.15,2013-04-08 18:44:00,
2013-04-08 13:48:00,62.2,55.3,29.76,NNW,331,4.0,7.0,78,0.00,,,0.77,Wunderground v.1.15,2013-04-08 18:48:00,
2013-04-08 13:52:00,62.3,55.4,29.76,WSW,243,4.0,4.0,78,0.00,,,0.77,Wunderground v.1.15,2013-04-08 18:52:00,
2013-04-08 13:53:00,62.4,55.8,29.76,WSW,248,4.0,5.0,79,0.00,,,0.77,Wunderground v.1.15,2013-04-08 18:53:00,
2013-04-08 13:54:00,62.4,55.8,29.76,WSW,252,4.0,5.0,79,0.00,,,0.77,Wunderground v.1.15,2013-04-08 18:54:00,
2013-04-08 13:55:00,62.5,55.5,29.76,WSW,256,4.0,5.0,78,0.00,,,0.77,Wunderground v.1.15,2013-04-08 18:55:00,
2013-04-08 14:00:00,63.0,56.0,29.76,NW,321,3.0,9.0,78,0.00,,,0.77,Wunderground v.1.15,2013-04-08 19:00:00,
2013-04-08 14:01:00,63.0,55.7,29.76,NW,320,4.0,9.0,77,0.00,,,0.77,Wunderground v.1.15,2013-04-08 19:01:00,
2013-04-08 14:02:00,63.1,55.8,29.76,WSW,237,4.0,9.0,77,0.00,,,0.77,Wunderground v.1.15,2013-04-08 19:02:00,
2013-04-08 14:06:00,63.2,55.5,29.76,SW,234,4.0,9.0,76,0.00,,,0.77,Wunderground v.1.15,2013-04-08 19:06:00,
2013-04-08 14:07:00,63.2,55.5,29.76,West,271,4.0,9.0,76,0.00,,,0.77,Wunderground v.1.15,2013-04-08 19:07:00,
2013-04-08 14:08:00,63.3,55.6,29.76,WSW,254,4.0,9.0,76,0.00,,,0.77,Wunderground v.1.15,2013-04-08 19:08:00,
2013-04-08 14:11:00,63.5,56.2,29.76,WNW,294,4.0,4.0,77,0.00,,,0.77,Wunderground v.1.15,2013-04-08 19:11:00,
2013-04-08 14:13:00,63.7,56.0,29.76,West,263,3.0,11.0,76,0.00,,,0.77,Wunderground v.1.15,2013-04-08 19:13:00,
2013-04-08 14:15:00,63.8,56.4,29.76,WNW,292,3.0,11.0,77,0.00,,,0.77,Wunderground v.1.15,2013-04-08 19:15:00,
2013-04-08 14:16:00,63.9,56.2,29.76,WNW,287,3.0,11.0,76,0.00,,,0.77,Wunderground v.1.15,2013-04-08 19:16:00,
2013-04-08 14:17:00,63.9,56.5,29.76,NW,306,3.0,11.0,77,0.00,,,0.77,Wunderground v.1.15,2013-04-08 19:17:00,
2013-04-08 14:21:00,64.1,56.4,29.76,WSW,251,3.0,6.0,76,0.00,,,0.77,Wunderground v.1.15,2013-04-08 19:21:00,
2013-04-08 14:22:00,64.1,56.4,29.76,WSW,252,4.0,6.0,76,0.00,,,0.77,Wunderground v.1.15,2013-04-08 19:22:00,
2013-04-08 14:23:00,64.2,56.5,29.76,West,261,4.0,6.0,76,0.00,,,0.77,Wunderground v.1.15,2013-04-08 19:23:00,
2013-04-08 14:25:00,64.3,56.6,29.76,WNW,290,3.0,6.0,76,0.00,,,0.77,Wunderground v.1.15,2013-04-08 19:25:00,
2013-04-08 14:27:00,64.4,56.7,29.76,NNW,337,3.0,6.0,76,0.00,,,0.77,Wunderground v.1.15,2013-04-08 19:27:00,
2013-04-08 14:28:00,64.4,56.3,29.76,NW,318,3.0,6.0,75,0.00,,,0.77,Wunderground v.1.15,2013-04-08 19:28:00,
2013-04-08 14:32:00,64.4,56.3,29.76,SW,233,3.0,7.0,75,0.00,,,0.77,Wunderground v.1.15,2013-04-08 19:32:00,
2013-04-08 14:33:00,64.5,56.4,29.76,West,265,4.0,7.0,75,0.00,,,0.77,Wunderground v.1.15,2013-04-08 19:33:00,
2013-04-08 14:34:00,64.6,56.9,29.76,SW,225,4.0,7.0,76,0.00,,,0.77,Wunderground v.1.15,2013-04-08 19:34:00,
2013-04-08 14:35:00,64.7,56.6,29.76,SW,233,4.0,7.0,75,0.00,,,0.77,Wunderground v.1.15,2013-04-08 19:35:00,
2013-04-08 14:37:00,64.8,57.4,29.76,NW,323,4.0,7.0,77,0.00,,,0.77,Wunderground v.1.15,2013-04-08 19:37:00,
2013-04-08 14:39:00,64.9,56.8,29.76,WNW,285,3.0,7.0,75,0.00,,,0.77,Wunderground v.1.15,2013-04-08 19:39:00,
2013-04-08 14:40:00,65.0,56.5,29.76,SW,236,3.0,6.0,74,0.00,,,0.77,Wunderground v.1.15,2013-04-08 19:40:00,
2013-04-08 14:43:00,65.2,56.7,29.76,SW,234,3.0,6.0,74,0.00,,,0.77,Wunderground v.1.15,2013-04-08 19:43:00,
2013-04-08 14:45:00,65.3,56.4,29.76,West,265,3.0,6.0,73,0.00,,,0.77,Wunderground v.1.15,2013-04-08 19:45:00,
2013-04-08 14:46:00,65.3,56.4,29.76,WSW,242,3.0,6.0,73,0.00,,,0.77,Wunderground v.1.15,2013-04-08 19:46:00,
2013-04-08 14:50:00,65.4,56.9,29.76,WSW,240,3.0,10.0,74,0.00,,,0.77,Wunderground v.1.15,2013-04-08 19:50:00,
2013-04-08 14:52:00,65.5,56.6,29.76,NW,309,3.0,10.0,73,0.00,,,0.77,Wunderground v.1.15,2013-04-08 19:52:00,
2013-04-08 14:53:00,65.5,57.0,29.76,NW,323,3.0,10.0,74,0.00,,,0.77,Wunderground v.1.15,2013-04-08 19:53:00,
2013-04-08 14:58:00,65.7,56.8,29.77,WSW,252,3.0,10.0,73,0.00,,,0.77,Wunderground v.1.15,2013-04-08 19:58:00,
2013-04-08 14:59:00,65.7,57.2,29.76,WNW,284,4.0,10.0,74,0.00,,,0.77,Wunderground v.1.15,2013-04-08 19:59:00,
2013-04-08 15:03:00,65.9,56.6,29.76,SW,234,4.0,4.0,72,0.00,,,0.77,Wunderground v.1.15,2013-04-08 20:03:00,
2013-04-08 15:04:00,65.9,57.0,29.77,West,260,4.0,7.0,73,0.00,,,0.77,Wunderground v.1.15,2013-04-08 20:04:00,
2013-04-08 15:05:00,66.0,57.1,29.76,NW,325,4.0,7.0,73,0.00,,,0.77,Wunderground v.1.15,2013-04-08 20:05:00,
2013-04-08 15:09:00,66.1,57.6,29.76,WSW,241,4.0,7.0,74,0.00,,,0.77,Wunderground v.1.15,2013-04-08 20:09:00,
2013-04-08 15:10:00,66.2,57.7,29.76,SW,234,3.0,5.0,74,0.00,,,0.77,Wunderground v.1.15,2013-04-08 20:10:00,
2013-04-08 15:12:00,66.3,57.4,29.76,WSW,252,3.0,5.0,73,0.00,,,0.77,Wunderground v.1.15,2013-04-08 20:12:00,
2013-04-08 15:13:00,66.3,57.8,29.76,WSW,253,3.0,5.0,74,0.00,,,0.77,Wunderground v.1.15,2013-04-08 20:13:00,
2013-04-08 15:17:00,66.5,58.3,29.76,WNW,302,3.0,5.0,75,0.00,,,0.77,Wunderground v.1.15,2013-04-08 20:17:00,
2013-04-08 15:18:00,66.6,58.1,29.76,NNW,327,3.0,5.0,74,0.00,,,0.77,Wunderground v.1.15,2013-04-08 20:18:00,
2013-04-08 15:20:00,66.6,57.3,29.77,NNW,331,3.0,4.0,72,0.00,,,0.77,Wunderground v.1.15,2013-04-08 20:20:00,
2013-04-08 15:21:00,66.6,57.3,29.77,NNW,330,3.0,4.0,72,0.00,,,0.77,Wunderground v.1.15,2013-04-08 20:21:00,
2013-04-08 15:24:00,66.7,57.4,29.77,West,263,3.0,6.0,72,0.00,,,0.77,Wunderground v.1.15,2013-04-08 20:24:00,
2013-04-08 15:25:00,66.7,57.4,29.77,WSW,255,3.0,6.0,72,0.00,,,0.77,Wunderground v.1.15,2013-04-08 20:25:00,
2013-04-08 15:27:00,66.8,57.5,29.77,WSW,254,3.0,6.0,72,0.00,,,0.77,Wunderground v.1.15,2013-04-08 20:27:00,
2013-04-08 15:32:00,67.0,58.4,29.76,WSW,243,2.0,4.0,74,0.00,,,0.77,Wunderground v.1.15,2013-04-08 20:32:00,
2013-04-08 15:33:00,67.0,58.1,29.76,WSW,238,2.0,4.0,73,0.00,,,0.77,Wunderground v.1.15,2013-04-08 20:33:00,
2013-04-08 15:35:00,67.2,57.5,29.76,WSW,243,2.0,4.0,71,0.00,,,0.77,Wunderground v.1.15,2013-04-08 20:35:00,
2013-04-08 15:37:00,67.3,57.6,29.76,WSW,246,2.0,4.0,71,0.00,,,0.77,Wunderground v.1.15,2013-04-08 20:37:00,
2013-04-08 15:38:00,67.3,57.6,29.76,WSW,245,2.0,4.0,71,0.00,,,0.77,Wunderground v.1.15,2013-04-08 20:38:00,
2013-04-08 15:40:00,67.4,57.3,29.76,NW,322,2.0,2.0,70,0.00,,,0.77,Wunderground v.1.15,2013-04-08 20:40:00,
2013-04-08 15:45:00,67.6,57.5,29.76,WNW,302,2.0,4.0,70,0.00,,,0.77,Wunderground v.1.15,2013-04-08 20:45:00,
2013-04-08 15:46:00,67.6,57.9,29.76,WSW,250,2.0,7.0,71,0.00,,,0.77,Wunderground v.1.15,2013-04-08 20:46:00,
2013-04-08 15:47:00,67.6,57.1,29.76,WSW,246,3.0,7.0,69,0.00,,,0.77,Wunderground v.1.15,2013-04-08 20:47:00,
2013-04-08 15:48:00,67.6,57.1,29.76,SW,229,3.0,7.0,69,0.00,,,0.77,Wunderground v.1.15,2013-04-08 20:48:00,
2013-04-08 15:51:00,67.6,57.9,29.76,WSW,248,3.0,3.0,71,0.00,,,0.77,Wunderground v.1.15,2013-04-08 20:51:00,
2013-04-08 15:53:00,67.7,57.6,29.76,West,276,3.0,3.0,70,0.00,,,0.77,Wunderground v.1.15,2013-04-08 20:53:00,
2013-04-08 15:54:00,67.7,57.6,29.76,SW,223,3.0,7.0,70,0.00,,,0.77,Wunderground v.1.15,2013-04-08 20:54:00,
2013-04-08 15:56:00,67.7,58.0,29.76,WSW,237,3.0,7.0,71,0.00,,,0.77,Wunderground v.1.15,2013-04-08 20:56:00,
2013-04-08 15:58:00,67.8,58.1,29.76,WSW,237,2.0,7.0,71,0.00,,,0.77,Wunderground v.1.15,2013-04-08 20:58:00,
2013-04-08 16:00:00,67.9,57.8,29.76,NW,321,2.0,2.0,70,0.00,,,0.77,Wunderground v.1.15,2013-04-08 21:00:00,
2013-04-08 16:01:00,67.9,57.4,29.76,WSW,251,2.0,5.0,69,0.00,,,0.77,Wunderground v.1.15,2013-04-08 21:01:00,
2013-04-08 16:02:00,67.9,57.8,29.76,WSW,248,2.0,5.0,70,0.00,,,0.77,Wunderground v.1.15,2013-04-08 21:02:00,
2013-04-08 16:04:00,67.9,57.8,29.76,West,275,2.0,5.0,70,0.00,,,0.77,Wunderground v.1.15,2013-04-08 21:04:00,
2013-04-08 16:08:00,68.0,57.8,29.76,WSW,241,3.0,5.0,70,0.00,,,0.77,Wunderground v.1.15,2013-04-08 21:08:00,
2013-04-08 16:09:00,68.0,57.4,29.76,WSW,250,3.0,5.0,69,0.00,,,0.77,Wunderground v.1.15,2013-04-08 21:09:00,
2013-04-08 16:10:00,68.0,57.4,29.77,WSW,249,3.0,5.0,69,0.00,,,0.77,Wunderground v.1.15,2013-04-08 21:10:00,
2013-04-08 16:12:00,68.1,57.5,29.77,WSW,254,3.0,5.0,69,0.00,,,0.77,Wunderground v.1.15,2013-04-08 21:12:00,
2013-04-08 16:16:00,67.8,56.9,29.76,WSW,256,2.0,5.0,68,0.00,,,0.77,Wunderground v.1.15,2013-04-08 21:16:00,
2013-04-08 16:18:00,67.7,57.2,29.76,WSW,256,2.0,5.0,69,0.00,,,0.77,Wunderground v.1.15,2013-04-08 21:18:00,
2013-04-08 16:19:00,67.6,57.1,29.76,WSW,256,1.0,5.0,69,0.00,,,0.77,Wunderground v.1.15,2013-04-08 21:19:00,
2013-04-08 16:23:00,67.5,57.8,29.76,WSW,254,1.0,1.0,71,0.00,,,0.77,Wunderground v.1.15,2013-04-08 21:23:00,
2013-04-08 16:24:00,67.5,57.8,29.76,WSW,254,1.0,1.0,71,0.00,,,0.77,Wunderground v.1.15,2013-04-08 21:24:00,
2013-04-08 16:27:00,67.6,57.9,29.76,WSW,254,1.0,3.0,71,0.00,,,0.77,Wunderground v.1.15,2013-04-08 21:27:00,
2013-04-08 16:29:00,67.6,57.5,29.76,NW,311,1.0,4.0,70,0.00,,,0.77,Wunderground v.1.15,2013-04-08 21:29:00,
2013-04-08 16:33:00,67.6,57.1,29.76,NNW,327,2.0,4.0,69,0.00,,,0.77,Wunderground v.1.15,2013-04-08 21:33:00,
2013-04-08 16:35:00,67.5,57.4,29.76,North,5,3.0,4.0,70,0.00,,,0.77,Wunderground v.1.15,2013-04-08 21:35:00,
2013-04-08 16:37:00,67.5,57.8,29.76,North,5,3.0,4.0,71,0.00,,,0.77,Wunderground v.1.15,2013-04-08 21:37:00,
2013-04-08 16:38:00,67.5,57.8,29.77,North,349,3.0,4.0,71,0.00,,,0.77,Wunderground v.1.15,2013-04-08 21:38:00,
2013-04-08 16:41:00,67.5,57.8,29.77,NNW,348,2.0,3.0,71,0.00,,,0.77,Wunderground v.1.15,2013-04-08 21:41:00,
2013-04-08 16:43:00,67.5,57.8,29.77,North,9,3.0,5.0,71,0.00,,,0.77,Wunderground v.1.15,2013-04-08 21:43:00,
2013-04-08 16:46:00,67.5,57.8,29.77,NNW,347,3.0,5.0,71,0.00,,,0.77,Wunderground v.1.15,2013-04-08 21:46:00,
2013-04-08 16:48:00,67.6,57.9,29.77,NNW,342,3.0,5.0,71,0.00,,,0.77,Wunderground v.1.15,2013-04-08 21:48:00,
2013-04-08 16:50:00,67.7,58.0,29.77,NNW,342,3.0,3.0,71,0.00,,,0.77,Wunderground v.1.15,2013-04-08 21:50:00,
2013-04-08 16:51:00,67.7,57.6,29.77,NNW,342,3.0,4.0,70,0.00,,,0.77,Wunderground v.1.15,2013-04-08 21:51:00,
2013-04-08 16:55:00,67.7,57.2,29.77,NNW,348,2.0,6.0,69,0.00,,,0.77,Wunderground v.1.15,2013-04-08 21:55:00,
2013-04-08 16:57:00,67.7,57.2,29.77,North,9,2.0,6.0,69,0.00,,,0.77,Wunderground v.1.15,2013-04-08 21:57:00,
2013-04-08 16:58:00,67.7,57.2,29.77,North,5,2.0,6.0,69,0.00,,,0.77,Wunderground v.1.15,2013-04-08 21:58:00,
2013-04-08 17:03:00,67.6,57.5,29.78,North,9,2.0,4.0,70,0.00,,,0.77,Wunderground v.1.15,2013-04-08 22:03:00,
2013-04-08 17:05:00,67.7,57.6,29.78,North,9,2.0,4.0,70,0.00,,,0.77,Wunderground v.1.15,2013-04-08 22:05:00,
2013-04-08 17:06:00,67.7,57.6,29.78,North,9,2.0,4.0,70,0.00,,,0.77,Wunderground v.1.15,2013-04-08 22:06:00,
2013-04-08 17:09:00,67.8,57.7,29.78,North,9,1.0,4.0,70,0.00,,,0.77,Wunderground v.1.15,2013-04-08 22:09:00,
2013-04-08 17:13:00,68.0,57.8,29.78,North,9,1.0,2.0,70,0.00,,,0.77,Wunderground v.1.15,2013-04-08 22:13:00,
2013-04-08 17:15:00,68.0,57.8,29.78,North,11,1.0,2.0,70,0.00,,,0.77,Wunderground v.1.15,2013-04-08 22:15:00,
2013-04-08 17:16:00,68.1,57.5,29.78,North,10,1.0,2.0,69,0.00,,,0.77,Wunderground v.1.15,2013-04-08 22:16:00,
2013-04-08 17:20:00,68.1,57.9,29.78,NNE,13,1.0,2.0,70,0.00,,,0.77,Wunderground v.1.15,2013-04-08 22:20:00,
2013-04-08 17:22:00,68.1,57.1,29.78,North,11,1.0,2.0,68,0.00,,,0.77,Wunderground v.1.15,2013-04-08 22:22:00,
2013-04-08 17:23:00,68.1,57.1,29.78,North,11,2.0,2.0,68,0.00,,,0.77,Wunderground v.1.15,2013-04-08 22:23:00,
2013-04-08 17:26:00,68.0,57.0,29.79,North,11,1.0,2.0,68,0.00,,,0.77,Wunderground v.1.15,2013-04-08 22:26:00,
2013-04-08 17:27:00,67.9,57.4,29.79,North,11,1.0,2.0,69,0.00,,,0.77,Wunderground v.1.15,2013-04-08 22:27:00,
2013-04-08 17:32:00,67.9,57.4,29.79,North,11,0.0,1.0,69,0.00,,,0.77,Wunderground v.1.15,2013-04-08 22:32:00,
2013-04-08 17:33:00,67.9,57.4,29.79,North,11,0.0,1.0,69,0.00,,,0.77,Wunderground v.1.15,2013-04-08 22:33:00,
2013-04-08 17:35:00,67.9,57.4,29.79,NNE,24,0.0,3.0,69,0.00,,,0.77,Wunderground v.1.15,2013-04-08 22:35:00,
2013-04-08 17:37:00,67.9,56.9,29.79,NE,35,1.0,3.0,68,0.00,,,0.77,Wunderground v.1.15,2013-04-08 22:37:00,
2013-04-08 17:39:00,67.8,56.9,29.79,NE,35,1.0,3.0,68,0.00,,,0.77,Wunderground v.1.15,2013-04-08 22:39:00,
2013-04-08 17:43:00,67.7,57.2,29.79,NE,35,1.0,1.0,69,0.00,,,0.77,Wunderground v.1.15,2013-04-08 22:43:00,
2013-04-08 17:44:00,67.8,57.3,29.79,NE,35,1.0,1.0,69,0.00,,,0.77,Wunderground v.1.15,2013-04-08 22:44:00,
2013-04-08 17:45:00,67.8,57.3,29.79,NE,35,1.0,1.0,69,0.00,,,0.77,Wunderground v.1.15,2013-04-08 22:45:00,
2013-04-08 17:48:00,67.7,57.2,29.79,NE,35,0.0,1.0,69,0.00,,,0.77,Wunderground v.1.15,2013-04-08 22:48:00,
2013-04-08 17:50:00,67.7,57.2,29.79,NE,35,0.0,0.0,69,0.00,,,0.77,Wunderground v.1.15,2013-04-08 22:50:00,
2013-04-08 17:51:00,67.7,57.6,29.79,NE,35,0.0,0.0,70,0.00,,,0.77,Wunderground v.1.15,2013-04-08 22:51:00,
2013-04-08 17:53:00,67.7,57.2,29.79,NE,35,0.0,0.0,69,0.00,,,0.77,Wunderground v.1.15,2013-04-08 22:53:00,
2013-04-08 17:56:00,67.7,57.2,29.80,NE,35,0.0,0.0,69,0.00,,,0.77,Wunderground v.1.15,2013-04-08 22:56:00,
2013-04-08 17:57:00,67.7,57.6,29.80,NE,35,0.0,0.0,70,0.00,,,0.77,Wunderground v.1.15,2013-04-08 22:57:00,
2013-04-08 17:58:00,67.7,57.2,29.80,NE,35,0.0,1.0,69,0.00,,,0.77,Wunderground v.1.15,2013-04-08 22:58:00,
2013-04-08 18:00:00,67.8,57.3,29.80,NE,35,0.0,0.0,69,0.00,,,0.77,Wunderground v.1.15,2013-04-08 23:00:00,
2013-04-08 18:02:00,67.8,57.3,29.80,NE,35,0.0,1.0,69,0.00,,,0.77,Wunderground v.1.15,2013-04-08 23:02:00,
2013-04-08 18:04:00,67.8,57.3,29.80,NE,35,0.0,1.0,69,0.00,,,0.77,Wunderground v.1.15,2013-04-08 23:04:00,
2013-04-08 18:06:00,67.8,56.9,29.80,NE,35,0.0,2.0,68,0.00,,,0.77,Wunderground v.1.15,2013-04-08 23:06:00,
2013-04-08 18:10:00,67.9,56.5,29.80,NE,35,0.0,0.0,67,0.00,,,0.77,Wunderground v.1.15,2013-04-08 23:10:00,
2013-04-08 18:12:00,67.8,56.4,29.80,NE,35,0.0,0.0,67,0.00,,,0.77,Wunderground v.1.15,2013-04-08 23:12:00,
2013-04-08 18:15:00,67.9,56.5,29.80,NE,35,0.0,0.0,67,0.00,,,0.77,Wunderground v.1.15,2013-04-08 23:15:00,
2013-04-08 18:18:00,67.9,56.5,29.80,NE,35,0.0,0.0,67,0.00,,,0.77,Wunderground v.1.15,2013-04-08 23:18:00,
2013-04-08 18:20:00,67.9,56.9,29.80,NE,35,0.0,0.0,68,0.00,,,0.77,Wunderground v.1.15,2013-04-08 23:20:00,
2013-04-08 18:22:00,67.9,56.9,29.80,NE,35,0.0,2.0,68,0.00,,,0.77,Wunderground v.1.15,2013-04-08 23:22:00,
2013-04-08 18:23:00,67.9,56.9,29.80,NE,35,0.0,2.0,68,0.00,,,0.77,Wunderground v.1.15,2013-04-08 23:23:00,
2013-04-08 18:27:00,67.8,56.9,29.80,NE,35,0.0,2.0,68,0.00,,,0.77,Wunderground v.1.15,2013-04-08 23:27:00,
2013-04-08 18:29:00,67.7,57.2,29.80,NE,35,0.0,2.0,69,0.00,,,0.77,Wunderground v.1.15,2013-04-08 23:29:00,
2013-04-08 18:30:00,67.6,57.1,29.80,NE,35,0.0,1.0,69,0.00,,,0.77,Wunderground v.1.15,2013-04-08 23:30:00,
2013-04-08 18:34:00,67.5,57.0,29.80,NE,35,0.0,1.0,69,0.00,,,0.77,Wunderground v.1.15,2013-04-08 23:34:00,
2013-04-08 18:35:00,67.5,57.0,29.80,NE,35,0.0,1.0,69,0.00,,,0.77,Wunderground v.1.15,2013-04-08 23:35:00,
2013-04-08 18:36:00,67.5,57.0,29.80,NE,35,0.0,1.0,69,0.00,,,0.77,Wunderground v.1.15,2013-04-08 23:36:00,
2013-04-08 18:39:00,67.3,57.2,29.80,NE,35,0.0,1.0,70,0.00,,,0.77,Wunderground v.1.15,2013-04-08 23:39:00,
2013-04-08 18:40:00,67.3,57.2,29.80,NE,35,0.0,0.0,70,0.00,,,0.77,Wunderground v.1.15,2013-04-08 23:40:00,
2013-04-08 18:42:00,67.2,57.1,29.80,NE,35,0.0,0.0,70,0.00,,,0.77,Wunderground v.1.15,2013-04-08 23:42:00,
2013-04-08 18:46:00,67.0,56.9,29.80,NE,35,0.0,0.0,70,0.00,,,0.77,Wunderground v.1.15,2013-04-08 23:46:00,
2013-04-08 18:48:00,66.9,56.8,29.80,NE,35,0.0,0.0,70,0.00,,,0.77,Wunderground v.1.15,2013-04-08 23:48:00,
2013-04-08 18:50:00,66.8,57.1,29.80,NE,35,0.0,0.0,71,0.00,,,0.77,Wunderground v.1.15,2013-04-08 23:50:00,
2013-04-08 18:52:00,66.7,57.0,29.80,NE,35,0.0,0.0,71,0.00,,,0.77,Wunderground v.1.15,2013-04-08 23:52:00,
2013-04-08 18:54:00,66.6,56.9,29.80,NE,35,0.0,0.0,71,0.00,,,0.77,Wunderground v.1.15,2013-04-08 23:54:00,
2013-04-08 18:57:00,66.5,56.8,29.80,NE,35,0.0,0.0,71,0.00,,,0.77,Wunderground v.1.15,2013-04-08 23:57:00,
2013-04-08 18:59:00,66.3,57.0,29.80,NE,35,0.0,0.0,72,0.00,,,0.77,Wunderground v.1.15,2013-04-08 23:59:00,
2013-04-08 19:00:00,66.2,56.9,29.80,NE,35,0.0,0.0,72,0.00,,,0.77,Wunderground v.1.15,2013-04-09 00:00:00,
2013-04-08 19:02:00,66.1,56.8,29.80,NE,35,0.0,0.0,72,0.00,,,0.77,Wunderground v.1.15,2013-04-09 00:02:00,
2013-04-08 19:04:00,66.0,56.7,29.81,NE,35,0.0,0.0,72,0.00,,,0.77,Wunderground v.1.15,2013-04-09 00:04:00,
2013-04-08 19:05:00,65.9,56.6,29.81,NE,35,0.0,0.0,72,0.00,,,0.77,Wunderground v.1.15,2013-04-09 00:05:00,
2013-04-08 19:08:00,65.8,56.9,29.81,NE,35,0.0,0.0,73,0.00,,,0.77,Wunderground v.1.15,2013-04-09 00:08:00,
2013-04-08 19:10:00,65.6,56.7,29.81,NE,35,0.0,0.0,73,0.00,,,0.77,Wunderground v.1.15,2013-04-09 00:10:00,
2013-04-08 19:11:00,65.5,56.6,29.81,NE,35,0.0,0.0,73,0.00,,,0.77,Wunderground v.1.15,2013-04-09 00:11:00,
2013-04-08 19:12:00,65.5,56.6,29.81,NE,35,0.0,0.0,73,0.00,,,0.77,Wunderground v.1.15,2013-04-09 00:12:00,
2013-04-08 19:14:00,65.3,56.4,29.81,NE,35,0.0,0.0,73,0.00,,,0.77,Wunderground v.1.15,2013-04-09 00:14:00,
2013-04-08 19:18:00,65.1,56.2,29.81,NE,35,0.0,0.0,73,0.00,,,0.77,Wunderground v.1.15,2013-04-09 00:18:00,
2013-04-08 19:19:00,65.0,56.5,29.81,NE,35,0.0,0.0,74,0.00,,,0.77,Wunderground v.1.15,2013-04-09 00:19:00,
2013-04-08 19:20:00,64.8,56.3,29.82,NE,35,0.0,0.0,74,0.00,,,0.77,Wunderground v.1.15,2013-04-09 00:20:00,
2013-04-08 19:24:00,64.6,56.1,29.82,NE,35,0.0,0.0,74,0.00,,,0.77,Wunderground v.1.15,2013-04-09 00:24:00,
2013-04-08 19:25:00,64.5,56.0,29.81,NE,35,0.0,0.0,74,0.00,,,0.77,Wunderground v.1.15,2013-04-09 00:25:00,
2013-04-08 19:26:00,64.4,55.9,29.82,NE,35,0.0,0.0,74,0.00,,,0.77,Wunderground v.1.15,2013-04-09 00:26:00,
2013-04-08 19:27:00,64.3,55.8,29.82,NE,35,0.0,0.0,74,0.00,,,0.77,Wunderground v.1.15,2013-04-09 00:27:00,
2013-04-08 19:30:00,64.0,55.9,29.82,NE,35,0.0,0.0,75,0.00,,,0.77,Wunderground v.1.15,2013-04-09 00:30:00,
2013-04-08 19:34:00,63.6,55.5,29.82,NE,35,0.0,0.0,75,0.00,,,0.77,Wunderground v.1.15,2013-04-09 00:34:00,
2013-04-08 19:36:00,63.5,55.8,29.82,NE,35,0.0,0.0,76,0.00,,,0.77,Wunderground v.1.15,2013-04-09 00:36:00,
2013-04-08 19:38:00,63.3,56.0,29.82,NE,35,0.0,0.0,77,0.00,,,0.77,Wunderground v.1.15,2013-04-09 00:38:00,
2013-04-08 19:43:00,62.9,55.9,29.82,NE,35,0.0,0.0,78,0.00,,,0.77,Wunderground v.1.15,2013-04-09 00:43:00,
2013-04-08 19:44:00,62.8,55.8,29.82,NE,35,0.0,0.0,78,0.00,,,0.77,Wunderground v.1.15,2013-04-09 00:44:00,
2013-04-08 19:45:00,62.7,55.7,29.82,NE,35,0.0,0.0,78,0.00,,,0.77,Wunderground v.1.15,2013-04-09 00:45:00,
2013-04-08 19:46:00,62.6,55.6,29.82,NE,35,0.0,0.0,78,0.00,,,0.77,Wunderground v.1.15,2013-04-09 00:46:00,
2013-04-08 19:50:00,62.3,55.4,29.82,NE,35,0.0,0.0,78,0.00,,,0.77,Wunderground v.1.15,2013-04-09 00:50:00,
2013-04-08 19:52:00,62.2,55.3,29.82,NE,35,0.0,0.0,78,0.00,,,0.77,Wunderground v.1.15,2013-04-09 00:52:00,
2013-04-08 19:54:00,62.1,55.5,29.82,NE,35,0.0,0.0,79,0.00,,,0.77,Wunderground v.1.15,2013-04-09 00:54:00,
2013-04-08 19:57:00,61.9,55.3,29.83,NE,35,0.0,0.0,79,0.00,,,0.77,Wunderground v.1.15,2013-04-09 00:57:00,
2013-04-08 19:59:00,61.8,55.2,29.83,NE,35,0.0,0.0,79,0.00,,,0.77,Wunderground v.1.15,2013-04-09 00:59:00,
2013-04-08 20:02:00,61.6,55.4,29.83,NE,35,0.0,0.0,80,0.00,,,0.77,Wunderground v.1.15,2013-04-09 01:02:00,
2013-04-08 20:04:00,61.5,55.3,29.83,NE,35,0.0,0.0,80,0.00,,,0.77,Wunderground v.1.15,2013-04-09 01:04:00,
2013-04-08 20:08:00,61.3,55.1,29.83,NE,35,0.0,0.0,80,0.00,,,0.77,Wunderground v.1.15,2013-04-09 01:08:00,
2013-04-08 20:09:00,61.2,55.0,29.83,NE,35,0.0,0.0,80,0.00,,,0.77,Wunderground v.1.15,2013-04-09 01:09:00,
2013-04-08 20:12:00,61.0,54.8,29.83,NE,35,0.0,0.0,80,0.00,,,0.77,Wunderground v.1.15,2013-04-09 01:12:00,
2013-04-08 20:13:00,60.9,55.0,29.84,NE,35,0.0,0.0,81,0.00,,,0.77,Wunderground v.1.15,2013-04-09 01:13:00,
2013-04-08 20:17:00,60.6,54.7,29.84,NE,35,0.0,0.0,81,0.00,,,0.77,Wunderground v.1.15,2013-04-09 01:17:00,
2013-04-08 20:18:00,60.5,54.6,29.84,NE,35,0.0,0.0,81,0.00,,,0.77,Wunderground v.1.15,2013-04-09 01:18:00,
2013-04-08 20:20:00,60.4,54.5,29.84,NE,35,0.0,0.0,81,0.00,,,0.77,Wunderground v.1.15,2013-04-09 01:20:00,
2013-04-08 20:25:00,60.0,54.5,29.84,NE,35,0.0,0.0,82,0.00,,,0.77,Wunderground v.1.15,2013-04-09 01:25:00,
2013-04-08 20:26:00,60.0,54.5,29.84,NE,35,0.0,0.0,82,0.00,,,0.77,Wunderground v.1.15,2013-04-09 01:26:00,
2013-04-08 20:27:00,59.9,54.4,29.84,NE,35,0.0,0.0,82,0.00,,,0.77,Wunderground v.1.15,2013-04-09 01:27:00,
2013-04-08 20:28:00,59.9,54.4,29.84,NE,35,0.0,0.0,82,0.00,,,0.77,Wunderground v.1.15,2013-04-09 01:28:00,
2013-04-08 20:30:00,59.8,54.6,29.84,NE,35,0.0,0.0,83,0.00,,,0.77,Wunderground v.1.15,2013-04-09 01:30:00,
2013-04-08 20:33:00,59.7,54.5,29.84,NE,35,0.0,0.0,83,0.00,,,0.77,Wunderground v.1.15,2013-04-09 01:33:00,
2013-04-08 20:37:00,59.5,54.3,29.84,NE,46,0.0,1.0,83,0.00,,,0.77,Wunderground v.1.15,2013-04-09 01:37:00,
2013-04-08 20:38:00,59.5,54.3,29.85,NE,51,0.0,1.0,83,0.00,,,0.77,Wunderground v.1.15,2013-04-09 01:38:00,
2013-04-08 20:39:00,59.4,54.2,29.85,NE,53,0.0,2.0,83,0.00,,,0.77,Wunderground v.1.15,2013-04-09 01:39:00,
2013-04-08 20:43:00,59.5,54.3,29.85,ENE,75,1.0,3.0,83,0.00,,,0.77,Wunderground v.1.15,2013-04-09 01:43:00,
2013-04-08 20:44:00,59.5,54.3,29.85,ENE,75,1.0,3.0,83,0.00,,,0.77,Wunderground v.1.15,2013-04-09 01:44:00,
2013-04-08 20:45:00,59.5,54.3,29.85,ENE,71,2.0,3.0,83,0.00,,,0.77,Wunderground v.1.15,2013-04-09 01:45:00,
2013-04-08 20:48:00,59.5,54.3,29.86,ENE,75,2.0,4.0,83,0.00,,,0.77,Wunderground v.1.15,2013-04-09 01:48:00,
2013-04-08 20:52:00,59.5,54.3,29.86,ENE,74,2.0,2.0,83,0.00,,,0.77,Wunderground v.1.15,2013-04-09 01:52:00,
2013-04-08 20:54:00,59.4,54.2,29.86,ESE,111,2.0,4.0,83,0.00,,,0.77,Wunderground v.1.15,2013-04-09 01:54:00,
2013-04-08 20:55:00,59.4,54.2,29.86,ESE,105,2.0,4.0,83,0.00,,,0.77,Wunderground v.1.15,2013-04-09 01:55:00,
2013-04-08 20:58:00,59.3,54.1,29.85,ESE,105,2.0,4.0,83,0.00,,,0.77,Wunderground v.1.15,2013-04-09 01:58:00,
2013-04-08 21:00:00,59.2,54.0,29.86,ESE,104,2.0,2.0,83,0.00,,,0.77,Wunderground v.1.15,2013-04-09 02:00:00,
2013-04-08 21:04:00,59.0,53.8,29.86,East,84,2.0,3.0,83,0.00,,,0.77,Wunderground v.1.15,2013-04-09 02:04:00,
2013-04-08 21:06:00,59.0,53.8,29.86,East,101,2.0,5.0,83,0.00,,,0.77,Wunderground v.1.15,2013-04-09 02:06:00,
2013-04-08 21:07:00,58.9,53.7,29.86,East,101,2.0,5.0,83,0.00,,,0.77,Wunderground v.1.15,2013-04-09 02:07:00,
2013-04-08 21:08:00,58.9,53.7,29.86,East,99,2.0,5.0,83,0.00,,,0.77,Wunderground v.1.15,2013-04-09 02:08:00,
2013-04-08 21:12:00,58.6,53.8,29.86,East,87,2.0,6.0,84,0.00,,,0.77,Wunderground v.1.15,2013-04-09 02:12:00,
2013-04-08 21:13:00,58.6,53.8,29.87,East,87,2.0,6.0,84,0.00,,,0.77,Wunderground v.1.15,2013-04-09 02:13:00,
2013-04-08 21:15:00,58.4,53.6,29.86,ENE,75,2.0,6.0,84,0.00,,,0.77,Wunderground v.1.15,2013-04-09 02:15:00,
2013-04-08 21:19:00,58.3,53.5,29.87,East,92,2.0,6.0,84,0.00,,,0.77,Wunderground v.1.15,2013-04-09 02:19:00,
2013-04-08 21:20:00,58.2,53.4,29.87,East,91,2.0,3.0,84,0.00,,,0.77,Wunderground v.1.15,2013-04-09 02:20:00,
2013-04-08 21:22:00,58.1,53.6,29.87,East,91,2.0,3.0,85,0.00,,,0.77,Wunderground v.1.15,2013-04-09 02:22:00,
2013-04-08 21:26:00,57.9,53.4,29.87,East,93,2.0,3.0,85,0.00,,,0.77,Wunderground v.1.15,2013-04-09 02:26:00,
2013-04-08 21:27:00,57.8,53.3,29.87,East,93,2.0,4.0,85,0.00,,,0.77,Wunderground v.1.15,2013-04-09 02:27:00,
2013-04-08 21:28:00,57.8,53.3,29.87,East,93,2.0,4.0,85,0.00,,,0.77,Wunderground v.1.15,2013-04-09 02:28:00,
2013-04-08 21:30:00,57.7,53.2,29.87,East,89,2.0,2.0,85,0.00,,,0.77,Wunderground v.1.15,2013-04-09 02:30:00,
2013-04-08 21:33:00,57.6,53.1,29.87,East,88,2.0,2.0,85,0.00,,,0.77,Wunderground v.1.15,2013-04-09 02:33:00,
2013-04-08 21:35:00,57.5,53.3,29.87,East,88,1.0,2.0,86,0.00,,,0.77,Wunderground v.1.15,2013-04-09 02:35:00,
2013-04-08 21:37:00,57.5,53.3,29.87,East,88,1.0,2.0,86,0.00,,,0.77,Wunderground v.1.15,2013-04-09 02:37:00,
2013-04-08 21:39:00,57.4,53.2,29.87,East,88,1.0,3.0,86,0.00,,,0.77,Wunderground v.1.15,2013-04-09 02:39:00,
2013-04-08 21:40:00,57.3,53.1,29.88,East,88,1.0,3.0,86,0.00,,,0.77,Wunderground v.1.15,2013-04-09 02:40:00,
2013-04-08 21:44:00,57.3,53.1,29.88,East,86,2.0,4.0,86,0.00,,,0.77,Wunderground v.1.15,2013-04-09 02:44:00,
2013-04-08 21:45:00,57.2,53.0,29.88,East,99,2.0,4.0,86,0.00,,,0.77,Wunderground v.1.15,2013-04-09 02:45:00,
2013-04-08 21:49:00,57.2,53.0,29.88,East,93,2.0,4.0,86,0.00,,,0.77,Wunderground v.1.15,2013-04-09 02:49:00,
2013-04-08 21:51:00,57.1,53.0,29.88,East,92,2.0,4.0,86,0.00,,,0.77,Wunderground v.1.15,2013-04-09 02:51:00,
2013-04-08 21:52:00,57.1,53.0,29.88,East,92,2.0,4.0,86,0.00,,,0.77,Wunderground v.1.15,2013-04-09 02:52:00,
2013-04-08 21:55:00,57.0,52.9,29.88,East,92,1.0,4.0,86,0.00,,,0.77,Wunderground v.1.15,2013-04-09 02:55:00,
2013-04-08 21:57:00,57.0,52.9,29.88,East,92,1.0,4.0,86,0.00,,,0.77,Wunderground v.1.15,2013-04-09 02:57:00,
2013-04-08 21:58:00,56.9,52.8,29.88,East,84,1.0,4.0,86,0.00,,,0.77,Wunderground v.1.15,2013-04-09 02:58:00,
2013-04-08 22:03:00,56.8,52.7,29.88,East,84,2.0,4.0,86,0.00,,,0.77,Wunderground v.1.15,2013-04-09 03:03:00,
2013-04-08 22:05:00,56.7,52.6,29.89,East,100,2.0,5.0,86,0.00,,,0.77,Wunderground v.1.15,2013-04-09 03:05:00,
2013-04-08 22:07:00,56.7,52.6,29.88,East,99,2.0,5.0,86,0.00,,,0.77,Wunderground v.1.15,2013-04-09 03:07:00,
2013-04-08 22:09:00,56.6,52.5,29.88,East,99,2.0,5.0,86,0.00,,,0.77,Wunderground v.1.15,2013-04-09 03:09:00,
2013-04-08 22:12:00,56.6,52.5,29.88,East,99,2.0,2.0,86,0.00,,,0.77,Wunderground v.1.15,2013-04-09 03:12:00,
2013-04-08 22:13:00,56.6,52.5,29.88,East,99,2.0,2.0,86,0.00,,,0.77,Wunderground v.1.15,2013-04-09 03:13:00,
2013-04-08 22:17:00,56.5,52.7,29.88,East,84,1.0,6.0,87,0.00,,,0.77,Wunderground v.1.15,2013-04-09 03:17:00,
2013-04-08 22:19:00,56.4,52.6,29.89,East,83,1.0,6.0,87,0.00,,,0.77,Wunderground v.1.15,2013-04-09 03:19:00,
2013-04-08 22:22:00,56.4,52.6,29.89,East,83,1.0,3.0,87,0.00,,,0.77,Wunderground v.1.15,2013-04-09 03:22:00,
2013-04-08 22:25:00,56.3,52.5,29.89,East,83,1.0,3.0,87,0.00,,,0.77,Wunderground v.1.15,2013-04-09 03:25:00,
2013-04-08 22:28:00,56.2,52.4,29.89,East,83,1.0,3.0,87,0.00,,,0.77,Wunderground v.1.15,2013-04-09 03:28:00,
2013-04-08 22:30:00,56.1,52.0,29.89,East,83,1.0,1.0,86,0.00,,,0.77,Wunderground v.1.15,2013-04-09 03:30:00,
2013-04-08 22:31:00,56.1,52.3,29.89,East,83,1.0,1.0,87,0.00,,,0.77,Wunderground v.1.15,2013-04-09 03:31:00,
2013-04-08 22:32:00,56.0,51.9,29.89,East,83,1.0,1.0,86,0.00,,,0.77,Wunderground v.1.15,2013-04-09 03:32:00,
2013-04-08 22:35:00,55.9,52.1,29.89,ENE,62,1.0,6.0,87,0.00,,,0.77,Wunderground v.1.15,2013-04-09 03:35:00,
2013-04-08 22:37:00,55.9,52.1,29.89,ENE,62,1.0,6.0,87,0.00,,,0.77,Wunderground v.1.15,2013-04-09 03:37:00,
2013-04-08 22:41:00,55.8,52.0,29.89,ENE,62,1.0,2.0,87,0.00,,,0.77,Wunderground v.1.15,2013-04-09 03:41:00,
2013-04-08 22:42:00,55.7,51.9,29.89,ENE,62,1.0,2.0,87,0.00,,,0.77,Wunderground v.1.15,2013-04-09 03:42:00,
2013-04-08 22:44:00,55.6,51.8,29.89,ENE,62,1.0,2.0,87,0.00,,,0.77,Wunderground v.1.15,2013-04-09 03:44:00,
2013-04-08 22:47:00,55.6,51.8,29.89,ENE,62,1.0,2.0,87,0.00,,,0.77,Wunderground v.1.15,2013-04-09 03:47:00,
2013-04-08 22:50:00,55.5,51.7,29.89,ENE,61,1.0,2.0,87,0.00,,,0.77,Wunderground v.1.15,2013-04-09 03:50:00,
2013-04-08 22:52:00,55.5,51.7,29.90,ENE,61,1.0,2.0,87,0.00,,,0.77,Wunderground v.1.15,2013-04-09 03:52:00,
2013-04-08 22:56:00,55.4,51.6,29.90,ENE,61,1.0,3.0,87,0.00,,,0.77,Wunderground v.1.15,2013-04-09 03:56:00,
2013-04-08 22:58:00,55.3,51.5,29.90,ENE,62,1.0,3.0,87,0.00,,,0.77,Wunderground v.1.15,2013-04-09 03:58:00,
2013-04-08 23:00:00,55.3,51.5,29.90,ENE,61,1.0,1.0,87,0.00,,,0.77,Wunderground v.1.15,2013-04-09 04:00:00,
2013-04-08 23:02:00,55.2,51.4,29.90,ENE,61,1.0,1.0,87,0.00,,,0.77,Wunderground v.1.15,2013-04-09 04:02:00,
2013-04-08 23:03:00,55.2,51.4,29.90,ENE,61,1.0,1.0,87,0.00,,,0.77,Wunderground v.1.15,2013-04-09 04:03:00,
2013-04-08 23:07:00,55.1,51.3,29.90,ENE,68,1.0,3.0,87,0.00,,,0.77,Wunderground v.1.15,2013-04-09 04:07:00,
2013-04-08 23:08:00,55.1,51.3,29.90,ENE,67,1.0,3.0,87,0.00,,,0.77,Wunderground v.1.15,2013-04-09 04:08:00,
2013-04-08 23:12:00,55.0,51.2,29.90,ENE,68,1.0,1.0,87,0.00,,,0.77,Wunderground v.1.15,2013-04-09 04:12:00,
2013-04-08 23:14:00,54.9,51.1,29.90,ENE,68,1.0,2.0,87,0.00,,,0.77,Wunderground v.1.15,2013-04-09 04:14:00,
2013-04-08 23:17:00,54.8,51.0,29.90,ENE,66,1.0,3.0,87,0.00,,,0.77,Wunderground v.1.15,2013-04-09 04:17:00,
2013-04-08 23:18:00,54.8,51.0,29.90,ENE,66,1.0,3.0,87,0.00,,,0.77,Wunderground v.1.15,2013-04-09 04:18:00,
2013-04-08 23:22:00,54.7,50.9,29.90,ENE,78,2.0,4.0,87,0.00,,,0.77,Wunderground v.1.15,2013-04-09 04:22:00,
2013-04-08 23:24:00,54.7,50.9,29.90,East,80,2.0,4.0,87,0.00,,,0.77,Wunderground v.1.15,2013-04-09 04:24:00,
2013-04-08 23:27:00,54.6,50.8,29.90,ENE,75,3.0,6.0,87,0.00,,,0.77,Wunderground v.1.15,2013-04-09 04:27:00,
2013-04-08 23:28:00,54.6,50.8,29.90,ESE,102,3.0,7.0,87,0.00,,,0.77,Wunderground v.1.15,2013-04-09 04:28:00,
2013-04-08 23:32:00,54.5,50.7,29.90,East,90,3.0,5.0,87,0.00,,,0.77,Wunderground v.1.15,2013-04-09 04:32:00,
2013-04-08 23:33:00,54.4,50.6,29.90,East,90,3.0,5.0,87,0.00,,,0.77,Wunderground v.1.15,2013-04-09 04:33:00,
2013-04-08 23:34:00,54.4,50.6,29.90,East,90,3.0,5.0,87,0.00,,,0.77,Wunderground v.1.15,2013-04-09 04:34:00,
2013-04-08 23:39:00,54.2,50.4,29.90,ENE,76,3.0,5.0,87,0.00,,,0.77,Wunderground v.1.15,2013-04-09 04:39:00,
2013-04-08 23:40:00,54.2,50.4,29.90,East,83,3.0,5.0,87,0.00,,,0.77,Wunderground v.1.15,2013-04-09 04:40:00,
2013-04-08 23:42:00,54.1,50.3,29.90,East,84,3.0,5.0,87,0.00,,,0.77,Wunderground v.1.15,2013-04-09 04:42:00,
2013-04-08 23:44:00,54.1,50.3,29.91,ESE,113,3.0,5.0,87,0.00,,,0.77,Wunderground v.1.15,2013-04-09 04:44:00,
2013-04-08 23:45:00,54.0,49.9,29.91,East,101,3.0,5.0,86,0.00,,,0.77,Wunderground v.1.15,2013-04-09 04:45:00,
2013-04-08 23:46:00,54.0,49.9,29.91,East,98,3.0,5.0,86,0.00,,,0.77,Wunderground v.1.15,2013-04-09 04:46:00,
2013-04-08 23:48:00,53.9,49.8,29.91,East,86,3.0,5.0,86,0.00,,,0.77,Wunderground v.1.15,2013-04-09 04:48:00,
2013-04-08 23:50:00,53.8,49.7,29.91,East,86,3.0,3.0,86,0.00,,,0.77,Wunderground v.1.15,2013-04-09 04:50:00,
2013-04-08 23:54:00,53.7,49.6,29.91,East,94,4.0,5.0,86,0.00,,,0.77,Wunderground v.1.15,2013-04-09 04:54:00,
2013-04-08 23:56:00,53.7,49.6,29.91,East,94,4.0,6.0,86,0.00,,,0.77,Wunderground v.1.15,2013-04-09 04:56:00,
2013-04-08 23:59:00,53.6,49.2,29.91,East,90,5.0,9.0,85,0.00,,,0.77,Wunderground v.1.15,2013-04-09 04:59:00,